Observation data for Hackberry on 09/16/2020      Previous  Date  Next       Current Mesonet Observations  Soil Data  Daily Summary Page  Observations in Plain Language
KHA3 160500Z 13006KT 21/16 A3008 RMK A01 T02070163  RH  076%=      5-min Rain = 0
KHA3 160501Z 13006KT 21/16 A3008 RMK A01 T02070163  RH  076%=      5-min Rain = 0
KHA3 160502Z 14006KT 21/16 A3008 RMK A01 T02070163  RH  076%=      5-min Rain = 0
KHA3 160503Z 14006KT 21/16 A3008 RMK A01 T02080163  RH  076%=      5-min Rain = 0
KHA3 160504Z 14006KT 21/16 A3008 RMK A01 T02070163  RH  076%=      5-min Rain = 0
KHA3 160505Z 14007KT 21/16 A3008 RMK A01 T02070163  RH  076%=      5-min Rain = 0
KHA3 160506Z 13007KT 21/16 A3008 RMK A01 T02070163  RH  076%=      5-min Rain = 0
KHA3 160507Z 13007KT 21/16 A3008 RMK A01 T02070163  RH  076%=      5-min Rain = 0
KHA3 160508Z 13007KT 21/16 A3008 RMK A01 T02070164  RH  076%=      5-min Rain = 0
KHA3 160509Z 13007KT 21/16 A3008 RMK A01 T02080164  RH  076%=      5-min Rain = 0
KHA3 160510Z 13008KT 21/16 A3008 RMK A01 T02080164  RH  076%=      5-min Rain = 0
KHA3 160511Z 13007KT 21/16 A3008 RMK A01 T02080164  RH  076%=      5-min Rain = 0
KHA3 160512Z 13007KT 21/16 A3008 RMK A01 T02080164  RH  076%=      5-min Rain = 0
KHA3 160513Z 13007KT 21/16 A3008 RMK A01 T02070164  RH  076%=      5-min Rain = 0
KHA3 160514Z 13007KT 21/16 A3008 RMK A01 T02060164  RH  077%=      5-min Rain = 0
KHA3 160515Z 13007KT 21/16 A3008 RMK A01 T02060164  RH  077%=      5-min Rain = 0
KHA3 160516Z 13007KT 21/16 A3008 RMK A01 T02060164  RH  077%=      5-min Rain = 0
KHA3 160517Z 13007KT 21/16 A3008 RMK A01 T02060164  RH  077%=      5-min Rain = 0
KHA3 160518Z 14007KT 21/16 A3008 RMK A01 T02060164  RH  077%=      5-min Rain = 0
KHA3 160519Z 13007KT 21/16 A3008 RMK A01 T02060164  RH  077%=      5-min Rain = 0
KHA3 160520Z 14006KT 21/16 A3008 RMK A01 T02060164  RH  077%=      5-min Rain = 0
KHA3 160521Z 14006KT 21/16 A3008 RMK A01 T02060164  RH  076%=      5-min Rain = 0
KHA3 160522Z 13007KT 21/16 A3008 RMK A01 T02070164  RH  077%=      5-min Rain = 0
KHA3 160523Z 13007KT 21/17 A3008 RMK A01 T02070165  RH  077%=      5-min Rain = 0
KHA3 160524Z 12007KT 21/16 A3008 RMK A01 T02060164  RH  077%=      5-min Rain = 0
KHA3 160525Z 13007KT 21/16 A3008 RMK A01 T02050164  RH  077%=      5-min Rain = 0
KHA3 160526Z 14006KT 20/16 A3008 RMK A01 T02040164  RH  078%=      5-min Rain = 0
KHA3 160527Z 14007KT 20/16 A3008 RMK A01 T02040164  RH  078%=      5-min Rain = 0
KHA3 160528Z 13006KT 20/16 A3008 RMK A01 T02030164  RH  078%=      5-min Rain = 0
KHA3 160529Z 13007KT 20/16 A3008 RMK A01 T02040164  RH  078%=      5-min Rain = 0
KHA3 160530Z 13007KT 20/17 A3008 RMK A01 T02040165  RH  078%=      5-min Rain = 0
KHA3 160531Z 13007KT 20/17 A3008 RMK A01 T02030165  RH  078%=      5-min Rain = 0
KHA3 160532Z 13007KT 20/17 A3008 RMK A01 T02040165  RH  078%=      5-min Rain = 0
KHA3 160533Z 14007KT 21/17 A3008 RMK A01 T02050165  RH  078%=      5-min Rain = 0
KHA3 160534Z 13006KT 21/17 A3008 RMK A01 T02050165  RH  078%=      5-min Rain = 0
KHA3 160535Z 13007KT 21/17 A3008 RMK A01 T02050165  RH  078%=      5-min Rain = 0
KHA3 160536Z 13006KT 20/17 A3008 RMK A01 T02040165  RH  078%=      5-min Rain = 0
KHA3 160537Z 13007KT 20/17 A3008 RMK A01 T02040165  RH  079%=      5-min Rain = 0
KHA3 160538Z 13007KT 20/17 A3008 RMK A01 T02030165  RH  079%=      5-min Rain = 0
KHA3 160539Z 13007KT 20/17 A3008 RMK A01 T02030165  RH  079%=      5-min Rain = 0
KHA3 160540Z 13007KT 20/17 A3008 RMK A01 T02040166  RH  079%=      5-min Rain = 0
KHA3 160541Z 13007KT 20/17 A3008 RMK A01 T02040166  RH  078%=      5-min Rain = 0
KHA3 160542Z 13007KT 21/17 A3008 RMK A01 T02050166  RH  078%=      5-min Rain = 0
KHA3 160543Z 13007KT 21/17 A3008 RMK A01 T02050166  RH  078%=      5-min Rain = 0
KHA3 160544Z 14006KT 21/17 A3008 RMK A01 T02050166  RH  078%=      5-min Rain = 0
KHA3 160545Z 14007KT 20/17 A3008 RMK A01 T02040166  RH  079%=      5-min Rain = 0
KHA3 160546Z 13007KT 20/17 A3008 RMK A01 T02040166  RH  079%=      5-min Rain = 0
KHA3 160547Z 13007KT 20/17 A3008 RMK A01 T02030166  RH  079%=      5-min Rain = 0
KHA3 160548Z 14007KT 20/17 A3008 RMK A01 T02030166  RH  079%=      5-min Rain = 0
KHA3 160549Z 14007KT 20/17 A3008 RMK A01 T02040166  RH  079%=      5-min Rain = 0
KHA3 160550Z 14006KT 20/17 A3008 RMK A01 T02030166  RH  079%=      5-min Rain = 0
KHA3 160551Z 14006KT 20/17 A3008 RMK A01 T02030165  RH  079%=      5-min Rain = 0
KHA3 160552Z 14006KT 20/17 A3008 RMK A01 T02030166  RH  079%=      5-min Rain = 0
KHA3 160553Z 15007KT 20/17 A3008 RMK A01 T02030165  RH  079%=      5-min Rain = 0
KHA3 160554Z 15007KT 20/17 A3008 RMK A01 T02010165  RH  080%=      5-min Rain = 0
KHA3 160555Z 15007KT 20/16 A3008 RMK A01 T01990164  RH  080%=      5-min Rain = 0
KHA3 160556Z 15007KT 20/16 A3008 RMK A01 T01980164  RH  081%=      5-min Rain = 0
KHA3 160557Z 15006KT 20/16 A3008 RMK A01 T01960164  RH  082%=      5-min Rain = 0
KHA3 160558Z 15006KT 20/17 A3008 RMK A01 T01950165  RH  082%=      5-min Rain = 0
KHA3 160559Z 15007KT 20/17 A3008 RMK A01 T01950165  RH  083%=      5-min Rain = 0
KHA3 160600Z 14006KT 20/17 A3008 RMK A01 T01950165  RH  083%=      5-min Rain = 0
KHA3 160601Z 14007KT 19/17 A3008 RMK A01 T01940165  RH  083%=      5-min Rain = 0
KHA3 160602Z 14006KT 19/17 A3008 RMK A01 T01940165  RH  083%=      5-min Rain = 0
KHA3 160603Z 14007KT 20/17 A3008 RMK A01 T01950165  RH  083%=      5-min Rain = 0
KHA3 160604Z 14006KT 20/17 A3008 RMK A01 T01960166  RH  083%=      5-min Rain = 0
KHA3 160605Z 14007KT 20/17 A3008 RMK A01 T01960165  RH  082%=      5-min Rain = 0
KHA3 160606Z 14007KT 20/17 A3008 RMK A01 T01960166  RH  082%=      5-min Rain = 0
KHA3 160607Z 14007KT 20/17 A3008 RMK A01 T01970166  RH  082%=      5-min Rain = 0
KHA3 160608Z 14007KT 20/17 A3008 RMK A01 T01970166  RH  082%=      5-min Rain = 0
KHA3 160609Z 14007KT 20/17 A3008 RMK A01 T01980167  RH  082%=      5-min Rain = 0
KHA3 160610Z 15007KT 20/17 A3008 RMK A01 T01980167  RH  082%=      5-min Rain = 0
KHA3 160611Z 15007KT 20/17 A3008 RMK A01 T01980166  RH  082%=      5-min Rain = 0
KHA3 160612Z 15007KT 20/17 A3008 RMK A01 T01970166  RH  082%=      5-min Rain = 0
KHA3 160613Z 15006KT 20/17 A3008 RMK A01 T01960166  RH  083%=      5-min Rain = 0
KHA3 160614Z 15006KT 20/17 A3008 RMK A01 T01950166  RH  083%=      5-min Rain = 0
KHA3 160615Z 15005KT 19/17 A3008 RMK A01 T01940166  RH  084%=      5-min Rain = 0
KHA3 160616Z 15005KT 19/17 A3008 RMK A01 T01930166  RH  084%=      5-min Rain = 0
KHA3 160617Z 15005KT 19/17 A3008 RMK A01 T01930167  RH  085%=      5-min Rain = 0
KHA3 160618Z 16005KT 19/17 A3008 RMK A01 T01920166  RH  085%=      5-min Rain = 0
KHA3 160619Z 16005KT 19/17 A3008 RMK A01 T01920166  RH  085%=      5-min Rain = 0
KHA3 160620Z 16005KT 19/17 A3008 RMK A01 T01920167  RH  085%=      5-min Rain = 0
KHA3 160621Z 16005KT 19/17 A3008 RMK A01 T01920167  RH  086%=      5-min Rain = 0
KHA3 160622Z 16005KT 19/17 A3008 RMK A01 T01920167  RH  086%=      5-min Rain = 0
KHA3 160623Z 16005KT 19/17 A3008 RMK A01 T01920167  RH  086%=      5-min Rain = 0
KHA3 160624Z 16004KT 19/17 A3008 RMK A01 T01920168  RH  086%=      5-min Rain = 0
KHA3 160625Z 16004KT 19/17 A3008 RMK A01 T01920167  RH  086%=      5-min Rain = 0
KHA3 160626Z 16004KT 19/17 A3008 RMK A01 T01920168  RH  086%=      5-min Rain = 0
KHA3 160627Z 16004KT 19/17 A3008 RMK A01 T01920168  RH  086%=      5-min Rain = 0
KHA3 160628Z 16004KT 19/17 A3008 RMK A01 T01920168  RH  086%=      5-min Rain = 0
KHA3 160629Z 16004KT 19/17 A3008 RMK A01 T01930168  RH  086%=      5-min Rain = 0
KHA3 160630Z 16004KT 19/17 A3008 RMK A01 T01930168  RH  086%=      5-min Rain = 0
KHA3 160631Z 16004KT 19/17 A3008 RMK A01 T01930168  RH  086%=      5-min Rain = 0
KHA3 160632Z 16004KT 19/17 A3008 RMK A01 T01930168  RH  086%=      5-min Rain = 0
KHA3 160633Z 16004KT 19/17 A3008 RMK A01 T01920168  RH  086%=      5-min Rain = 0
KHA3 160634Z 17004KT 19/17 A3008 RMK A01 T01920168  RH  086%=      5-min Rain = 0
KHA3 160635Z 16004KT 19/17 A3008 RMK A01 T01920168  RH  086%=      5-min Rain = 0
KHA3 160636Z 16003KT 19/17 A3008 RMK A01 T01920168  RH  086%=      5-min Rain = 0
KHA3 160637Z 16004KT 19/17 A3008 RMK A01 T01930169  RH  086%=      5-min Rain = 0
KHA3 160638Z 16003KT 19/17 A3008 RMK A01 T01920168  RH  086%=      5-min Rain = 0
KHA3 160639Z 16003KT 19/17 A3009 RMK A01 T01920168  RH  086%=      5-min Rain = 0
KHA3 160640Z 16003KT 19/17 A3009 RMK A01 T01920168  RH  086%=      5-min Rain = 0
KHA3 160641Z 16003KT 19/17 A3009 RMK A01 T01920169  RH  086%=      5-min Rain = 0
KHA3 160642Z 16003KT 19/17 A3009 RMK A01 T01920169  RH  086%=      5-min Rain = 0
KHA3 160643Z 16003KT 19/17 A3008 RMK A01 T01920169  RH  086%=      5-min Rain = 0
KHA3 160644Z 17003KT 19/17 A3008 RMK A01 T01920169  RH  086%=      5-min Rain = 0
KHA3 160645Z 17003KT 19/17 A3008 RMK A01 T01930169  RH  086%=      5-min Rain = 0
KHA3 160646Z 17003KT 19/17 A3008 RMK A01 T01930168  RH  086%=      5-min Rain = 0
KHA3 160647Z 18002KT 19/17 A3008 RMK A01 T01930169  RH  086%=      5-min Rain = 0
KHA3 160648Z 17002KT 19/17 A3008 RMK A01 T01930169  RH  086%=      5-min Rain = 0
KHA3 160649Z 16001KT 19/17 A3008 RMK A01 T01930169  RH  086%=      5-min Rain = 0
KHA3 160650Z 16001KT 19/17 A3008 RMK A01 T01920169  RH  086%=      5-min Rain = 0
KHA3 160651Z 15001KT 19/17 A3008 RMK A01 T01920169  RH  086%=      5-min Rain = 0
KHA3 160652Z 15002KT 19/17 A3008 RMK A01 T01920169  RH  086%=      5-min Rain = 0
KHA3 160653Z 15002KT 19/17 A3008 RMK A01 T01910169  RH  087%=      5-min Rain = 0
KHA3 160654Z 14002KT 19/17 A3008 RMK A01 T01920169  RH  087%=      5-min Rain = 0
KHA3 160655Z 14002KT 19/17 A3008 RMK A01 T01920169  RH  087%=      5-min Rain = 0
KHA3 160656Z 14002KT 19/17 A3008 RMK A01 T01920169  RH  086%=      5-min Rain = 0
KHA3 160657Z 13002KT 19/17 A3008 RMK A01 T01930170  RH  086%=      5-min Rain = 0
KHA3 160658Z 14002KT 19/17 A3008 RMK A01 T01930169  RH  086%=      5-min Rain = 0
KHA3 160659Z 13002KT 19/17 A3008 RMK A01 T01930169  RH  086%=      5-min Rain = 0
KHA3 160700Z 12001KT 19/17 A3008 RMK A01 T01930169  RH  086%=      5-min Rain = 0
KHA3 160701Z 12002KT 19/17 A3008 RMK A01 T01930170  RH  086%=      5-min Rain = 0
KHA3 160702Z 12002KT 19/17 A3008 RMK A01 T01930170  RH  086%=      5-min Rain = 0
KHA3 160703Z 12002KT 19/17 A3008 RMK A01 T01930170  RH  086%=      5-min Rain = 0
KHA3 160704Z 12002KT 19/17 A3008 RMK A01 T01930170  RH  086%=      5-min Rain = 0
KHA3 160705Z 12001KT 19/17 A3008 RMK A01 T01930170  RH  086%=      5-min Rain = 0
KHA3 160706Z 13002KT 19/17 A3008 RMK A01 T01930169  RH  086%=      5-min Rain = 0
KHA3 160707Z 14002KT 19/17 A3008 RMK A01 T01930170  RH  087%=      5-min Rain = 0
KHA3 160708Z 14002KT 19/17 A3008 RMK A01 T01930170  RH  087%=      5-min Rain = 0
KHA3 160709Z 15002KT 19/17 A3008 RMK A01 T01930170  RH  086%=      5-min Rain = 0
KHA3 160710Z 15002KT 19/17 A3008 RMK A01 T01930169  RH  086%=      5-min Rain = 0
KHA3 160711Z 16002KT 19/17 A3008 RMK A01 T01930170  RH  086%=      5-min Rain = 0
KHA3 160712Z 15002KT 19/17 A3008 RMK A01 T01930170  RH  086%=      5-min Rain = 0
KHA3 160713Z 16002KT 19/17 A3008 RMK A01 T01930170  RH  086%=      5-min Rain = 0
KHA3 160714Z 15002KT 19/17 A3008 RMK A01 T01930169  RH  086%=      5-min Rain = 0
KHA3 160715Z 14002KT 19/17 A3008 RMK A01 T01930169  RH  086%=      5-min Rain = 0
KHA3 160716Z 15002KT 19/17 A3008 RMK A01 T01930170  RH  086%=      5-min Rain = 0
KHA3 160717Z 14002KT 19/17 A3008 RMK A01 T01930170  RH  086%=      5-min Rain = 0
KHA3 160718Z 14003KT 19/17 A3008 RMK A01 T01930169  RH  086%=      5-min Rain = 0
KHA3 160719Z 14003KT 19/17 A3008 RMK A01 T01930169  RH  086%=      5-min Rain = 0
KHA3 160720Z 13003KT 19/17 A3008 RMK A01 T01930169  RH  086%=      5-min Rain = 0
KHA3 160721Z 13002KT 19/17 A3008 RMK A01 T01920169  RH  086%=      5-min Rain = 0
KHA3 160722Z 13002KT 19/17 A3008 RMK A01 T01920169  RH  087%=      5-min Rain = 0
KHA3 160723Z 13003KT 19/17 A3008 RMK A01 T01920169  RH  087%=      5-min Rain = 0
KHA3 160724Z 13003KT 19/17 A3008 RMK A01 T01910169  RH  087%=      5-min Rain = 0
KHA3 160725Z 12003KT 19/17 A3008 RMK A01 T01910169  RH  087%=      5-min Rain = 0
KHA3 160726Z 12003KT 19/17 A3008 RMK A01 T01910169  RH  087%=      5-min Rain = 0
KHA3 160727Z 11003KT 19/17 A3008 RMK A01 T01910168  RH  087%=      5-min Rain = 0
KHA3 160728Z 12004KT 19/17 A3008 RMK A01 T01910169  RH  087%=      5-min Rain = 0
KHA3 160729Z 12004KT 19/17 A3008 RMK A01 T01910169  RH  087%=      5-min Rain = 0
KHA3 160730Z 13004KT 19/17 A3008 RMK A01 T01910169  RH  087%=      5-min Rain = 0
KHA3 160731Z 13004KT 19/17 A3008 RMK A01 T01910168  RH  087%=      5-min Rain = 0
KHA3 160732Z 13004KT 19/17 A3008 RMK A01 T01910169  RH  087%=      5-min Rain = 0
KHA3 160733Z 14004KT 19/17 A3008 RMK A01 T01910169  RH  087%=      5-min Rain = 0
KHA3 160734Z 14003KT 19/17 A3008 RMK A01 T01910168  RH  087%=      5-min Rain = 0
KHA3 160735Z 15003KT 19/17 A3008 RMK A01 T01920169  RH  087%=      5-min Rain = 0
KHA3 160736Z 15003KT 19/17 A3008 RMK A01 T01910169  RH  087%=      5-min Rain = 0
KHA3 160737Z 15003KT 19/17 A3008 RMK A01 T01920169  RH  087%=      5-min Rain = 0
KHA3 160738Z 16004KT 19/17 A3008 RMK A01 T01910169  RH  087%=      5-min Rain = 0
KHA3 160739Z 16003KT 19/17 A3008 RMK A01 T01910169  RH  087%=      5-min Rain = 0
KHA3 160740Z 16003KT 19/17 A3008 RMK A01 T01920169  RH  087%=      5-min Rain = 0
KHA3 160741Z 16003KT 19/17 A3008 RMK A01 T01920169  RH  087%=      5-min Rain = 0
KHA3 160742Z 16003KT 19/17 A3008 RMK A01 T01910169  RH  087%=      5-min Rain = 0
KHA3 160743Z 16003KT 19/17 A3008 RMK A01 T01910169  RH  087%=      5-min Rain = 0
KHA3 160744Z 16003KT 19/17 A3008 RMK A01 T01910169  RH  087%=      5-min Rain = 0
KHA3 160745Z 16003KT 19/17 A3008 RMK A01 T01910169  RH  087%=      5-min Rain = 0
KHA3 160746Z 16003KT 19/17 A3008 RMK A01 T01920169  RH  087%=      5-min Rain = 0
KHA3 160747Z 17003KT 19/17 A3008 RMK A01 T01910169  RH  087%=      5-min Rain = 0
KHA3 160748Z 18002KT 19/17 A3008 RMK A01 T01910169  RH  087%=      5-min Rain = 0
KHA3 160749Z 21002KT 19/17 A3008 RMK A01 T01900169  RH  087%=      5-min Rain = 0
KHA3 160750Z 21002KT 19/17 A3008 RMK A01 T01890168  RH  088%=      5-min Rain = 0
KHA3 160751Z 23002KT 19/17 A3008 RMK A01 T01880168  RH  088%=      5-min Rain = 0
KHA3 160752Z 22002KT 19/17 A3008 RMK A01 T01860168  RH  089%=      5-min Rain = 0
KHA3 160753Z 24002KT 19/17 A3008 RMK A01 T01850169  RH  090%=      5-min Rain = 0
KHA3 160754Z 23002KT 18/17 A3008 RMK A01 T01840169  RH  091%=      5-min Rain = 0
KHA3 160755Z 23002KT 18/17 A3008 RMK A01 T01840169  RH  091%=      5-min Rain = 0
KHA3 160756Z 22001KT 18/17 A3008 RMK A01 T01840169  RH  091%=      5-min Rain = 0
KHA3 160757Z 22001KT 18/17 A3008 RMK A01 T01840169  RH  091%=      5-min Rain = 0
KHA3 160758Z 22001KT 18/17 A3008 RMK A01 T01840169  RH  091%=      5-min Rain = 0
KHA3 160759Z 22002KT 18/17 A3008 RMK A01 T01840168  RH  090%=      5-min Rain = 0
KHA3 160800Z 22001KT 19/17 A3008 RMK A01 T01850169  RH  090%=      5-min Rain = 0
KHA3 160801Z 22002KT 19/17 A3008 RMK A01 T01850169  RH  090%=      5-min Rain = 0
KHA3 160802Z 22002KT 19/17 A3008 RMK A01 T01860169  RH  090%=      5-min Rain = 0
KHA3 160803Z 22002KT 19/17 A3008 RMK A01 T01870169  RH  089%=      5-min Rain = 0
KHA3 160804Z 22002KT 19/17 A3008 RMK A01 T01870169  RH  089%=      5-min Rain = 0
KHA3 160805Z 22002KT 19/17 A3007 RMK A01 T01880169  RH  089%=      5-min Rain = 0
KHA3 160806Z 23002KT 19/17 A3007 RMK A01 T01880169  RH  089%=      5-min Rain = 0
KHA3 160807Z 23002KT 19/17 A3007 RMK A01 T01880169  RH  089%=      5-min Rain = 0
KHA3 160808Z 23002KT 19/17 A3007 RMK A01 T01870168  RH  089%=      5-min Rain = 0
KHA3 160809Z 23002KT 19/17 A3007 RMK A01 T01860167  RH  089%=      5-min Rain = 0
KHA3 160810Z 23002KT 18/17 A3007 RMK A01 T01840166  RH  089%=      5-min Rain = 0
KHA3 160811Z 23002KT 18/17 A3007 RMK A01 T01830166  RH  090%=      5-min Rain = 0
KHA3 160812Z 23002KT 18/17 A3007 RMK A01 T01820166  RH  090%=      5-min Rain = 0
KHA3 160813Z 23003KT 18/17 A3007 RMK A01 T01810165  RH  090%=      5-min Rain = 0
KHA3 160814Z 23003KT 18/17 A3007 RMK A01 T01810165  RH  090%=      5-min Rain = 0
KHA3 160815Z 25003KT 18/16 A3007 RMK A01 T01800164  RH  091%=      5-min Rain = 0
KHA3 160816Z 24002KT 18/17 A3007 RMK A01 T01790165  RH  091%=      5-min Rain = 0
KHA3 160817Z 24003KT 18/16 A3007 RMK A01 T01780164  RH  091%=      5-min Rain = 0
KHA3 160818Z 24003KT 18/16 A3007 RMK A01 T01780164  RH  091%=      5-min Rain = 0
KHA3 160819Z 24003KT 18/16 A3007 RMK A01 T01780164  RH  092%=      5-min Rain = 0
KHA3 160820Z 24002KT 18/16 A3007 RMK A01 T01770164  RH  092%=      5-min Rain = 0
KHA3 160821Z 24003KT 18/16 A3007 RMK A01 T01770163  RH  092%=      5-min Rain = 0
KHA3 160822Z 25002KT 18/16 A3007 RMK A01 T01770163  RH  091%=      5-min Rain = 0
KHA3 160823Z 26002KT 18/16 A3007 RMK A01 T01770163  RH  091%=      5-min Rain = 0
KHA3 160824Z 24002KT 18/16 A3007 RMK A01 T01770163  RH  091%=      5-min Rain = 0
KHA3 160825Z 24002KT 18/16 A3007 RMK A01 T01770162  RH  091%=      5-min Rain = 0
KHA3 160826Z 24002KT 18/16 A3007 RMK A01 T01760163  RH  092%=      5-min Rain = 0
KHA3 160827Z 26002KT 18/16 A3007 RMK A01 T01760163  RH  092%=      5-min Rain = 0
KHA3 160828Z 25002KT 18/16 A3007 RMK A01 T01760163  RH  092%=      5-min Rain = 0
KHA3 160829Z 25002KT 18/16 A3007 RMK A01 T01760163  RH  092%=      5-min Rain = 0
KHA3 160830Z 26002KT 18/16 A3007 RMK A01 T01760163  RH  092%=      5-min Rain = 0
KHA3 160831Z 26002KT 18/16 A3007 RMK A01 T01760163  RH  092%=      5-min Rain = 0
KHA3 160832Z 26002KT 18/16 A3007 RMK A01 T01770163  RH  092%=      5-min Rain = 0
KHA3 160833Z 25002KT 18/16 A3007 RMK A01 T01760163  RH  092%=      5-min Rain = 0
KHA3 160834Z 25002KT 18/16 A3007 RMK A01 T01770163  RH  092%=      5-min Rain = 0
KHA3 160835Z 25002KT 18/16 A3007 RMK A01 T01760162  RH  091%=      5-min Rain = 0
KHA3 160836Z 24002KT 18/16 A3007 RMK A01 T01770162  RH  091%=      5-min Rain = 0
KHA3 160837Z 25002KT 18/16 A3007 RMK A01 T01770163  RH  091%=      5-min Rain = 0
KHA3 160838Z 24002KT 18/16 A3007 RMK A01 T01770163  RH  091%=      5-min Rain = 0
KHA3 160839Z 24002KT 18/16 A3007 RMK A01 T01770163  RH  091%=      5-min Rain = 0
KHA3 160840Z 24002KT 18/16 A3007 RMK A01 T01770163  RH  091%=      5-min Rain = 0
KHA3 160841Z 23002KT 18/16 A3007 RMK A01 T01780164  RH  091%=      5-min Rain = 0
KHA3 160842Z 23002KT 18/16 A3007 RMK A01 T01780164  RH  091%=      5-min Rain = 0
KHA3 160843Z 22002KT 18/17 A3007 RMK A01 T01790165  RH  091%=      5-min Rain = 0
KHA3 160844Z 22002KT 18/17 A3007 RMK A01 T01790165  RH  091%=      5-min Rain = 0
KHA3 160845Z 21002KT 18/16 A3007 RMK A01 T01790164  RH  091%=      5-min Rain = 0
KHA3 160846Z 22002KT 18/17 A3007 RMK A01 T01800165  RH  091%=      5-min Rain = 0
KHA3 160847Z 22002KT 18/17 A3007 RMK A01 T01800165  RH  091%=      5-min Rain = 0
KHA3 160848Z 22002KT 18/17 A3007 RMK A01 T01800165  RH  091%=      5-min Rain = 0
KHA3 160849Z 23002KT 18/16 A3007 RMK A01 T01800164  RH  090%=      5-min Rain = 0
KHA3 160850Z 23002KT 18/16 A3007 RMK A01 T01800164  RH  090%=      5-min Rain = 0
KHA3 160851Z 23002KT 18/16 A3007 RMK A01 T01800164  RH  090%=      5-min Rain = 0
KHA3 160852Z 23002KT 18/16 A3007 RMK A01 T01800164  RH  090%=      5-min Rain = 0
KHA3 160853Z 23002KT 18/16 A3007 RMK A01 T01800164  RH  090%=      5-min Rain = 0
KHA3 160854Z 23002KT 18/16 A3007 RMK A01 T01800164  RH  091%=      5-min Rain = 0
KHA3 160855Z 22002KT 18/16 A3007 RMK A01 T01800164  RH  091%=      5-min Rain = 0
KHA3 160856Z 22002KT 18/16 A3007 RMK A01 T01800164  RH  091%=      5-min Rain = 0
KHA3 160857Z 21002KT 18/16 A3007 RMK A01 T01800164  RH  091%=      5-min Rain = 0
KHA3 160858Z 21002KT 18/16 A3007 RMK A01 T01790164  RH  091%=      5-min Rain = 0
KHA3 160859Z 21002KT 18/16 A3007 RMK A01 T01800164  RH  091%=      5-min Rain = 0
KHA3 160900Z 21002KT 18/16 A3007 RMK A01 T01790164  RH  091%=      5-min Rain = 0
KHA3 160901Z 22002KT 18/16 A3007 RMK A01 T01790164  RH  091%=      5-min Rain = 0
KHA3 160902Z 22002KT 18/16 A3007 RMK A01 T01800164  RH  091%=      5-min Rain = 0
KHA3 160903Z 22002KT 18/16 A3007 RMK A01 T01800164  RH  091%=      5-min Rain = 0
KHA3 160904Z 21002KT 18/16 A3007 RMK A01 T01800164  RH  091%=      5-min Rain = 0
KHA3 160905Z 21002KT 18/16 A3007 RMK A01 T01800164  RH  091%=      5-min Rain = 0
KHA3 160906Z 21002KT 18/16 A3007 RMK A01 T01800164  RH  091%=      5-min Rain = 0
KHA3 160907Z 21002KT 18/16 A3007 RMK A01 T01800164  RH  091%=      5-min Rain = 0
KHA3 160908Z 21002KT 18/16 A3007 RMK A01 T01800164  RH  091%=      5-min Rain = 0
KHA3 160909Z 22002KT 18/16 A3007 RMK A01 T01790164  RH  090%=      5-min Rain = 0
KHA3 160910Z 23002KT 18/16 A3007 RMK A01 T01800164  RH  090%=      5-min Rain = 0
KHA3 160911Z 24002KT 18/16 A3007 RMK A01 T01800164  RH  090%=      5-min Rain = 0
KHA3 160912Z 25002KT 18/16 A3007 RMK A01 T01790164  RH  090%=      5-min Rain = 0
KHA3 160913Z 26002KT 18/16 A3007 RMK A01 T01800164  RH  090%=      5-min Rain = 0
KHA3 160914Z 26002KT 18/16 A3007 RMK A01 T01790164  RH  091%=      5-min Rain = 0
KHA3 160915Z 27002KT 18/16 A3007 RMK A01 T01790164  RH  091%=      5-min Rain = 0
KHA3 160916Z 27002KT 18/16 A3007 RMK A01 T01780163  RH  091%=      5-min Rain = 0
KHA3 160917Z 27002KT 18/16 A3007 RMK A01 T01780164  RH  091%=      5-min Rain = 0
KHA3 160918Z 27002KT 18/16 A3007 RMK A01 T01780163  RH  091%=      5-min Rain = 0
KHA3 160919Z 28002KT 18/16 A3007 RMK A01 T01780163  RH  091%=      5-min Rain = 0
KHA3 160920Z 28002KT 18/16 A3007 RMK A01 T01770163  RH  092%=      5-min Rain = 0
KHA3 160921Z 28002KT 18/16 A3007 RMK A01 T01770164  RH  092%=      5-min Rain = 0
KHA3 160922Z 27002KT 18/16 A3007 RMK A01 T01770163  RH  092%=      5-min Rain = 0
KHA3 160923Z 27002KT 18/16 A3007 RMK A01 T01760163  RH  092%=      5-min Rain = 0
KHA3 160924Z 26002KT 18/16 A3007 RMK A01 T01760164  RH  092%=      5-min Rain = 0
KHA3 160925Z 26002KT 18/16 A3006 RMK A01 T01760164  RH  092%=      5-min Rain = 0
KHA3 160926Z 26002KT 18/16 A3006 RMK A01 T01760163  RH  092%=      5-min Rain = 0
KHA3 160927Z 25001KT 18/16 A3006 RMK A01 T01760164  RH  092%=      5-min Rain = 0
KHA3 160928Z 25001KT 18/16 A3006 RMK A01 T01760164  RH  092%=      5-min Rain = 0
KHA3 160929Z 25001KT 18/16 A3006 RMK A01 T01760163  RH  092%=      5-min Rain = 0
KHA3 160930Z 25001KT 18/16 A3006 RMK A01 T01750163  RH  092%=      5-min Rain = 0
KHA3 160931Z 24001KT 18/16 A3006 RMK A01 T01750163  RH  093%=      5-min Rain = 0
KHA3 160932Z 23001KT 18/16 A3006 RMK A01 T01750163  RH  093%=      5-min Rain = 0
KHA3 160933Z 24001KT 18/16 A3006 RMK A01 T01750163  RH  093%=      5-min Rain = 0
KHA3 160934Z 24001KT 18/16 A3006 RMK A01 T01750163  RH  093%=      5-min Rain = 0
KHA3 160935Z 25001KT 18/16 A3006 RMK A01 T01750163  RH  093%=      5-min Rain = 0
KHA3 160936Z 25002KT 18/16 A3006 RMK A01 T01750163  RH  093%=      5-min Rain = 0
KHA3 160937Z 25002KT 18/16 A3006 RMK A01 T01750163  RH  092%=      5-min Rain = 0
KHA3 160938Z 26002KT 18/16 A3006 RMK A01 T01760163  RH  092%=      5-min Rain = 0
KHA3 160939Z 26002KT 18/16 A3006 RMK A01 T01750163  RH  092%=      5-min Rain = 0
KHA3 160940Z 26002KT 18/16 A3006 RMK A01 T01750162  RH  092%=      5-min Rain = 0
KHA3 160941Z 26002KT 18/16 A3006 RMK A01 T01760163  RH  092%=      5-min Rain = 0
KHA3 160942Z 26002KT 18/16 A3006 RMK A01 T01760163  RH  092%=      5-min Rain = 0
KHA3 160943Z 26001KT 18/16 A3006 RMK A01 T01750163  RH  093%=      5-min Rain = 0
KHA3 160944Z 26001KT 18/16 A3006 RMK A01 T01750163  RH  093%=      5-min Rain = 0
KHA3 160945Z 26001KT 17/16 A3006 RMK A01 T01740163  RH  093%=      5-min Rain = 0
KHA3 160946Z 26001KT 18/16 A3006 RMK A01 T01750163  RH  093%=      5-min Rain = 0
KHA3 160947Z 26001KT 18/16 A3006 RMK A01 T01750163  RH  093%=      5-min Rain = 0
KHA3 160948Z 26001KT 17/16 A3006 RMK A01 T01740162  RH  093%=      5-min Rain = 0
KHA3 160949Z 26001KT 18/16 A3006 RMK A01 T01750163  RH  093%=      5-min Rain = 0
KHA3 160950Z 26001KT 17/16 A3006 RMK A01 T01740163  RH  093%=      5-min Rain = 0
KHA3 160951Z 26001KT 18/16 A3006 RMK A01 T01750163  RH  093%=      5-min Rain = 0
KHA3 160952Z 26001KT 17/16 A3006 RMK A01 T01740162  RH  093%=      5-min Rain = 0
KHA3 160953Z 26001KT 17/16 A3006 RMK A01 T01740162  RH  093%=      5-min Rain = 0
KHA3 160954Z 26001KT 17/16 A3006 RMK A01 T01730162  RH  093%=      5-min Rain = 0
KHA3 160955Z 26001KT 17/16 A3006 RMK A01 T01730162  RH  093%=      5-min Rain = 0
KHA3 160956Z 26001KT 17/16 A3006 RMK A01 T01730162  RH  093%=      5-min Rain = 0
KHA3 160957Z 26001KT 17/16 A3006 RMK A01 T01730162  RH  093%=      5-min Rain = 0
KHA3 160958Z 26002KT 17/16 A3006 RMK A01 T01730162  RH  093%=      5-min Rain = 0
KHA3 160959Z 26002KT 17/16 A3006 RMK A01 T01730162  RH  093%=      5-min Rain = 0
KHA3 161000Z 26002KT 17/16 A3006 RMK A01 T01730162  RH  093%=      5-min Rain = 0
KHA3 161001Z 26002KT 17/16 A3006 RMK A01 T01730162  RH  093%=      5-min Rain = 0
KHA3 161002Z 25002KT 17/16 A3006 RMK A01 T01730162  RH  093%=      5-min Rain = 0
KHA3 161003Z 25002KT 17/16 A3007 RMK A01 T01730162  RH  093%=      5-min Rain = 0
KHA3 161004Z 25002KT 17/16 A3007 RMK A01 T01730162  RH  093%=      5-min Rain = 0
KHA3 161005Z 25001KT 17/16 A3007 RMK A01 T01730162  RH  093%=      5-min Rain = 0
KHA3 161006Z 25001KT 17/16 A3007 RMK A01 T01730162  RH  093%=      5-min Rain = 0
KHA3 161007Z 25002KT 17/16 A3007 RMK A01 T01730162  RH  093%=      5-min Rain = 0
KHA3 161008Z 24002KT 17/16 A3007 RMK A01 T01730162  RH  094%=      5-min Rain = 0
KHA3 161009Z 24002KT 17/16 A3007 RMK A01 T01730162  RH  094%=      5-min Rain = 0
KHA3 161010Z 23002KT 17/16 A3007 RMK A01 T01730162  RH  094%=      5-min Rain = 0
KHA3 161011Z 23002KT 17/16 A3007 RMK A01 T01730163  RH  094%=      5-min Rain = 0
KHA3 161012Z 23002KT 17/16 A3006 RMK A01 T01730163  RH  094%=      5-min Rain = 0
KHA3 161013Z 23001KT 17/16 A3006 RMK A01 T01730163  RH  094%=      5-min Rain = 0
KHA3 161014Z 22002KT 17/16 A3006 RMK A01 T01730163  RH  094%=      5-min Rain = 0
KHA3 161015Z 22002KT 17/16 A3006 RMK A01 T01730163  RH  094%=      5-min Rain = 0
KHA3 161016Z 22002KT 17/16 A3006 RMK A01 T01730163  RH  094%=      5-min Rain = 0
KHA3 161017Z 21002KT 17/16 A3006 RMK A01 T01730163  RH  094%=      5-min Rain = 0
KHA3 161018Z 21002KT 17/16 A3006 RMK A01 T01730163  RH  094%=      5-min Rain = 0
KHA3 161019Z 21002KT 17/16 A3006 RMK A01 T01730163  RH  094%=      5-min Rain = 0
KHA3 161020Z 21002KT 17/16 A3006 RMK A01 T01730163  RH  094%=      5-min Rain = 0
KHA3 161021Z 22002KT 17/16 A3006 RMK A01 T01730163  RH  094%=      5-min Rain = 0
KHA3 161022Z 23002KT 17/16 A3006 RMK A01 T01730164  RH  094%=      5-min Rain = 0
KHA3 161023Z 23002KT 17/16 A3006 RMK A01 T01730164  RH  094%=      5-min Rain = 0
KHA3 161024Z 23001KT 17/16 A3006 RMK A01 T01730164  RH  094%=      5-min Rain = 0
KHA3 161025Z 21001KT 17/16 A3006 RMK A01 T01730164  RH  095%=      5-min Rain = 0
KHA3 161026Z 20002KT 17/16 A3006 RMK A01 T01730164  RH  095%=      5-min Rain = 0
KHA3 161027Z 20002KT 17/16 A3006 RMK A01 T01730164  RH  095%=      5-min Rain = 0
KHA3 161028Z 20002KT 17/17 A3006 RMK A01 T01730165  RH  095%=      5-min Rain = 0
KHA3 161029Z 20002KT 17/16 A3006 RMK A01 T01730164  RH  095%=      5-min Rain = 0
KHA3 161030Z 20002KT 17/16 A3006 RMK A01 T01730164  RH  095%=      5-min Rain = 0
KHA3 161031Z 20002KT 17/17 A3006 RMK A01 T01730165  RH  095%=      5-min Rain = 0
KHA3 161032Z 19002KT 17/17 A3006 RMK A01 T01730165  RH  095%=      5-min Rain = 0
KHA3 161033Z 19002KT 17/17 A3006 RMK A01 T01740165  RH  095%=      5-min Rain = 0
KHA3 161034Z 18003KT 17/17 A3006 RMK A01 T01740166  RH  095%=      5-min Rain = 0
KHA3 161035Z 18003KT 18/17 A3006 RMK A01 T01750166  RH  094%=      5-min Rain = 0
KHA3 161036Z 18003KT 18/17 A3006 RMK A01 T01760166  RH  094%=      5-min Rain = 0
KHA3 161037Z 18003KT 18/17 A3006 RMK A01 T01770166  RH  094%=      5-min Rain = 0
KHA3 161038Z 18003KT 18/17 A3006 RMK A01 T01770166  RH  093%=      5-min Rain = 0
KHA3 161039Z 18003KT 18/17 A3006 RMK A01 T01780167  RH  093%=      5-min Rain = 0
KHA3 161040Z 18003KT 18/17 A3006 RMK A01 T01780167  RH  093%=      5-min Rain = 0
KHA3 161041Z 18003KT 18/17 A3006 RMK A01 T01790168  RH  093%=      5-min Rain = 0
KHA3 161042Z 18004KT 18/17 A3006 RMK A01 T01800168  RH  093%=      5-min Rain = 0
KHA3 161043Z 17004KT 18/17 A3006 RMK A01 T01800168  RH  093%=      5-min Rain = 0
KHA3 161044Z 17004KT 18/17 A3006 RMK A01 T01800167  RH  092%=      5-min Rain = 0
KHA3 161045Z 16004KT 18/17 A3006 RMK A01 T01790166  RH  092%=      5-min Rain = 0
KHA3 161046Z 16005KT 18/16 A3006 RMK A01 T01780164  RH  092%=      5-min Rain = 0
KHA3 161047Z 16005KT 18/16 A3006 RMK A01 T01750162  RH  092%=      5-min Rain = 0
KHA3 161048Z 16005KT 17/16 A3006 RMK A01 T01740161  RH  092%=      5-min Rain = 0
KHA3 161049Z 16006KT 17/16 A3006 RMK A01 T01740163  RH  093%=      5-min Rain = 0
KHA3 161050Z 16006KT 17/16 A3006 RMK A01 T01730164  RH  094%=      5-min Rain = 0
KHA3 161051Z 16006KT 17/17 A3006 RMK A01 T01740165  RH  095%=      5-min Rain = 0
KHA3 161052Z 16006KT 17/17 A3006 RMK A01 T01740166  RH  094%=      5-min Rain = 0
KHA3 161053Z 16006KT 18/17 A3006 RMK A01 T01750166  RH  094%=      5-min Rain = 0
KHA3 161054Z 16006KT 18/17 A3006 RMK A01 T01750165  RH  094%=      5-min Rain = 0
KHA3 161055Z 16006KT 18/16 A3006 RMK A01 T01750164  RH  093%=      5-min Rain = 0
KHA3 161056Z 16006KT 17/16 A3006 RMK A01 T01740163  RH  093%=      5-min Rain = 0
KHA3 161057Z 17006KT 17/16 A3006 RMK A01 T01730163  RH  094%=      5-min Rain = 0
KHA3 161058Z 17005KT 17/16 A3006 RMK A01 T01720163  RH  094%=      5-min Rain = 0
KHA3 161059Z 17005KT 17/16 A3006 RMK A01 T01720163  RH  094%=      5-min Rain = 0
KHA3 161100Z 17005KT 17/16 A3006 RMK A01 T01720163  RH  094%=      5-min Rain = 0
KHA3 161101Z 17005KT 17/16 A3006 RMK A01 T01730164  RH  094%=      5-min Rain = 0
KHA3 161102Z 18005KT 17/16 A3006 RMK A01 T01730164  RH  094%=      5-min Rain = 0
KHA3 161103Z 17005KT 17/16 A3006 RMK A01 T01730164  RH  094%=      5-min Rain = 0
KHA3 161104Z 17005KT 17/16 A3006 RMK A01 T01740164  RH  094%=      5-min Rain = 0
KHA3 161105Z 17005KT 17/16 A3006 RMK A01 T01740164  RH  094%=      5-min Rain = 0
KHA3 161106Z 17004KT 17/17 A3006 RMK A01 T01740165  RH  094%=      5-min Rain = 0
KHA3 161107Z 17004KT 17/16 A3006 RMK A01 T01740164  RH  094%=      5-min Rain = 0
KHA3 161108Z 17004KT 17/16 A3006 RMK A01 T01740164  RH  094%=      5-min Rain = 0
KHA3 161109Z 17003KT 17/16 A3006 RMK A01 T01740164  RH  094%=      5-min Rain = 0
KHA3 161110Z 17004KT 17/16 A3006 RMK A01 T01740164  RH  094%=      5-min Rain = 0
KHA3 161111Z 17004KT 17/17 A3006 RMK A01 T01740165  RH  094%=      5-min Rain = 0
KHA3 161112Z 17004KT 17/17 A3006 RMK A01 T01740165  RH  094%=      5-min Rain = 0
KHA3 161113Z 17004KT 18/17 A3006 RMK A01 T01750165  RH  094%=      5-min Rain = 0
KHA3 161114Z 18004KT 18/17 A3006 RMK A01 T01750166  RH  094%=      5-min Rain = 0
KHA3 161115Z 17004KT 18/17 A3006 RMK A01 T01750166  RH  094%=      5-min Rain = 0
KHA3 161116Z 17004KT 18/17 A3006 RMK A01 T01760166  RH  094%=      5-min Rain = 0
KHA3 161117Z 17004KT 18/17 A3006 RMK A01 T01760166  RH  094%=      5-min Rain = 0
KHA3 161118Z 16004KT 18/17 A3006 RMK A01 T01760166  RH  094%=      5-min Rain = 0
KHA3 161119Z 16004KT 18/17 A3006 RMK A01 T01760166  RH  093%=      5-min Rain = 0
KHA3 161120Z 16003KT 18/17 A3006 RMK A01 T01760165  RH  093%=      5-min Rain = 0
KHA3 161121Z 16003KT 18/17 A3006 RMK A01 T01760165  RH  093%=      5-min Rain = 0
KHA3 161122Z 17003KT 18/17 A3006 RMK A01 T01760165  RH  093%=      5-min Rain = 0
KHA3 161123Z 16003KT 18/17 A3006 RMK A01 T01760166  RH  094%=      5-min Rain = 0
KHA3 161124Z 17003KT 18/17 A3006 RMK A01 T01760166  RH  094%=      5-min Rain = 0
KHA3 161125Z 17003KT 18/17 A3006 RMK A01 T01760167  RH  094%=      5-min Rain = 0
KHA3 161126Z 17003KT 18/17 A3006 RMK A01 T01760167  RH  094%=      5-min Rain = 0
KHA3 161127Z 17003KT 18/17 A3006 RMK A01 T01770167  RH  094%=      5-min Rain = 0
KHA3 161128Z 17003KT 18/17 A3006 RMK A01 T01770167  RH  094%=      5-min Rain = 0
KHA3 161129Z 18003KT 18/17 A3006 RMK A01 T01770167  RH  094%=      5-min Rain = 0
KHA3 161130Z 18003KT 18/17 A3006 RMK A01 T01780168  RH  094%=      5-min Rain = 0
KHA3 161131Z 18002KT 18/17 A3006 RMK A01 T01780167  RH  093%=      5-min Rain = 0
KHA3 161132Z 17002KT 18/17 A3006 RMK A01 T01780167  RH  093%=      5-min Rain = 0
KHA3 161133Z 17002KT 18/17 A3006 RMK A01 T01780167  RH  093%=      5-min Rain = 0
KHA3 161134Z 17002KT 18/17 A3006 RMK A01 T01780167  RH  093%=      5-min Rain = 0
KHA3 161135Z 17003KT 18/17 A3006 RMK A01 T01780167  RH  093%=      5-min Rain = 0
KHA3 161136Z 17003KT 18/17 A3006 RMK A01 T01780168  RH  093%=      5-min Rain = 0
KHA3 161137Z 17003KT 18/17 A3006 RMK A01 T01780168  RH  093%=      5-min Rain = 0
KHA3 161138Z 18002KT 18/17 A3006 RMK A01 T01790168  RH  094%=      5-min Rain = 0
KHA3 161139Z 19002KT 18/17 A3006 RMK A01 T01790168  RH  093%=      5-min Rain = 0
KHA3 161140Z 20002KT 18/17 A3007 RMK A01 T01790168  RH  093%=      5-min Rain = 0
KHA3 161141Z 20002KT 18/17 A3007 RMK A01 T01790168  RH  093%=      5-min Rain = 0
KHA3 161142Z 20002KT 18/17 A3007 RMK A01 T01800168  RH  093%=      5-min Rain = 0
KHA3 161143Z 20003KT 18/17 A3007 RMK A01 T01800169  RH  093%=      5-min Rain = 0
KHA3 161144Z 20003KT 18/17 A3007 RMK A01 T01810169  RH  093%=      5-min Rain = 0
KHA3 161145Z 21003KT 18/17 A3006 RMK A01 T01810169  RH  093%=      5-min Rain = 0
KHA3 161146Z 20003KT 18/17 A3006 RMK A01 T01810168  RH  092%=      5-min Rain = 0
KHA3 161147Z 20003KT 18/17 A3006 RMK A01 T01810169  RH  092%=      5-min Rain = 0
KHA3 161148Z 20002KT 18/17 A3006 RMK A01 T01820168  RH  092%=      5-min Rain = 0
KHA3 161149Z 19002KT 18/17 A3006 RMK A01 T01820168  RH  092%=      5-min Rain = 0
KHA3 161150Z 19003KT 18/17 A3006 RMK A01 T01810167  RH  091%=      5-min Rain = 0
KHA3 161151Z 18003KT 18/17 A3007 RMK A01 T01810167  RH  092%=      5-min Rain = 0
KHA3 161152Z 19003KT 18/17 A3007 RMK A01 T01800167  RH  092%=      5-min Rain = 0
KHA3 161153Z 19003KT 18/17 A3007 RMK A01 T01800167  RH  092%=      5-min Rain = 0
KHA3 161154Z 20003KT 18/17 A3007 RMK A01 T01800168  RH  093%=      5-min Rain = 0
KHA3 161155Z 21003KT 18/17 A3007 RMK A01 T01800167  RH  092%=      5-min Rain = 0
KHA3 161156Z 22003KT 18/17 A3007 RMK A01 T01790166  RH  092%=      5-min Rain = 0
KHA3 161157Z 22003KT 18/17 A3007 RMK A01 T01790165  RH  092%=      5-min Rain = 0
KHA3 161158Z 22003KT 18/16 A3007 RMK A01 T01780164  RH  092%=      5-min Rain = 0
KHA3 161159Z 22002KT 18/16 A3007 RMK A01 T01770164  RH  092%=      5-min Rain = 0
KHA3 161200Z 23002KT 18/16 A3007 RMK A01 T01760164  RH  092%=      5-min Rain = 0
KHA3 161201Z 24002KT 17/16 A3007 RMK A01 T01740162  RH  092%=      5-min Rain = 0
KHA3 161202Z 24002KT 17/16 A3007 RMK A01 T01730161  RH  093%=      5-min Rain = 0
KHA3 161203Z 24003KT 17/16 A3007 RMK A01 T01720161  RH  093%=      5-min Rain = 0
KHA3 161204Z 24003KT 17/16 A3007 RMK A01 T01710161  RH  094%=      5-min Rain = 0
KHA3 161205Z 24003KT 17/16 A3007 RMK A01 T01710161  RH  094%=      5-min Rain = 0
KHA3 161206Z 26003KT 17/16 A3007 RMK A01 T01700161  RH  095%=      5-min Rain = 0
KHA3 161207Z 27004KT 17/16 A3007 RMK A01 T01690161  RH  095%=      5-min Rain = 0
KHA3 161208Z 26004KT 17/16 A3007 RMK A01 T01690160  RH  095%=      5-min Rain = 0
KHA3 161209Z 26003KT 17/16 A3007 RMK A01 T01690161  RH  095%=      5-min Rain = 0
KHA3 161210Z 26003KT 17/16 A3007 RMK A01 T01680160  RH  095%=      5-min Rain = 0
KHA3 161211Z 26003KT 17/16 A3007 RMK A01 T01680161  RH  095%=      5-min Rain = 0
KHA3 161212Z 25003KT 17/16 A3007 RMK A01 T01680160  RH  095%=      5-min Rain = 0
KHA3 161213Z 24003KT 17/16 A3007 RMK A01 T01670160  RH  096%=      5-min Rain = 0
KHA3 161214Z 23002KT 17/16 A3007 RMK A01 T01670160  RH  096%=      5-min Rain = 0
KHA3 161215Z 24002KT 17/16 A3007 RMK A01 T01670161  RH  096%=      5-min Rain = 0
KHA3 161216Z 23002KT 17/16 A3007 RMK A01 T01670161  RH  096%=      5-min Rain = 0
KHA3 161217Z 23003KT 17/16 A3007 RMK A01 T01670161  RH  096%=      5-min Rain = 0
KHA3 161218Z 22003KT 17/16 A3007 RMK A01 T01670161  RH  096%=      5-min Rain = 0
KHA3 161219Z 22003KT 17/16 A3007 RMK A01 T01680161  RH  096%=      5-min Rain = 0
KHA3 161220Z 23003KT 17/16 A3007 RMK A01 T01680162  RH  096%=      5-min Rain = 0
KHA3 161221Z 23003KT 17/16 A3007 RMK A01 T01680162  RH  096%=      5-min Rain = 0
KHA3 161222Z 23003KT 17/16 A3007 RMK A01 T01690163  RH  096%=      5-min Rain = 0
KHA3 161223Z 23002KT 17/16 A3007 RMK A01 T01700163  RH  096%=      5-min Rain = 0
KHA3 161224Z 23003KT 17/16 A3007 RMK A01 T01700163  RH  096%=      5-min Rain = 0
KHA3 161225Z 23003KT 17/16 A3007 RMK A01 T01700163  RH  096%=      5-min Rain = 0
KHA3 161226Z 24003KT 17/16 A3007 RMK A01 T01700162  RH  095%=      5-min Rain = 0
KHA3 161227Z 25003KT 17/16 A3007 RMK A01 T01700162  RH  095%=      5-min Rain = 0
KHA3 161228Z 25004KT 17/16 A3007 RMK A01 T01690161  RH  095%=      5-min Rain = 0
KHA3 161229Z 26004KT 17/16 A3007 RMK A01 T01690161  RH  095%=      5-min Rain = 0
KHA3 161230Z 26004KT 17/16 A3007 RMK A01 T01690162  RH  095%=      5-min Rain = 0
KHA3 161231Z 27004KT 17/16 A3007 RMK A01 T01680161  RH  095%=      5-min Rain = 0
KHA3 161232Z 27004KT 17/16 A3007 RMK A01 T01670160  RH  095%=      5-min Rain = 0
KHA3 161233Z 26003KT 17/16 A3007 RMK A01 T01660159  RH  096%=      5-min Rain = 0
KHA3 161234Z 26003KT 17/16 A3007 RMK A01 T01660159  RH  096%=      5-min Rain = 0
KHA3 161235Z 25003KT 17/16 A3007 RMK A01 T01660159  RH  096%=      5-min Rain = 0
KHA3 161236Z 25003KT 17/16 A3007 RMK A01 T01660159  RH  096%=      5-min Rain = 0
KHA3 161237Z 25003KT 17/16 A3007 RMK A01 T01660160  RH  096%=      5-min Rain = 0
KHA3 161238Z 25003KT 17/16 A3007 RMK A01 T01660160  RH  096%=      5-min Rain = 0
KHA3 161239Z 25002KT 17/16 A3007 RMK A01 T01650159  RH  096%=      5-min Rain = 0
KHA3 161240Z 25003KT 17/16 A3007 RMK A01 T01650159  RH  096%=      5-min Rain = 0
KHA3 161241Z 25002KT 17/16 A3007 RMK A01 T01650159  RH  096%=      5-min Rain = 0
KHA3 161242Z 24002KT 17/16 A3007 RMK A01 T01650159  RH  096%=      5-min Rain = 0
KHA3 161243Z 24002KT 17/16 A3007 RMK A01 T01650159  RH  096%=      5-min Rain = 0
KHA3 161244Z 24003KT 17/16 A3007 RMK A01 T01650159  RH  096%=      5-min Rain = 0
KHA3 161245Z 25002KT 17/16 A3007 RMK A01 T01650158  RH  096%=      5-min Rain = 0
KHA3 161246Z 25003KT 17/16 A3007 RMK A01 T01650158  RH  096%=      5-min Rain = 0
KHA3 161247Z 25003KT 17/16 A3007 RMK A01 T01650158  RH  096%=      5-min Rain = 0
KHA3 161248Z 25003KT 17/16 A3007 RMK A01 T01650158  RH  096%=      5-min Rain = 0
KHA3 161249Z 25003KT 17/16 A3007 RMK A01 T01650158  RH  096%=      5-min Rain = 0
KHA3 161250Z 25003KT 17/16 A3007 RMK A01 T01650158  RH  096%=      5-min Rain = 0
KHA3 161251Z 25003KT 17/16 A3007 RMK A01 T01650158  RH  096%=      5-min Rain = 0
KHA3 161252Z 25003KT 17/16 A3008 RMK A01 T01650159  RH  096%=      5-min Rain = 0
KHA3 161253Z 25003KT 17/16 A3008 RMK A01 T01650159  RH  096%=      5-min Rain = 0
KHA3 161254Z 25002KT 16/16 A3008 RMK A01 T01640158  RH  096%=      5-min Rain = 0
KHA3 161255Z 24002KT 17/16 A3008 RMK A01 T01650159  RH  096%=      5-min Rain = 0
KHA3 161256Z 24002KT 17/16 A3008 RMK A01 T01650159  RH  096%=      5-min Rain = 0
KHA3 161257Z 23002KT 17/16 A3008 RMK A01 T01650159  RH  096%=      5-min Rain = 0
KHA3 161258Z 23002KT 17/16 A3008 RMK A01 T01660160  RH  096%=      5-min Rain = 0
KHA3 161259Z 23002KT 17/16 A3008 RMK A01 T01660160  RH  096%=      5-min Rain = 0
KHA3 161300Z 23002KT 17/16 A3008 RMK A01 T01660160  RH  096%=      5-min Rain = 0
KHA3 161301Z 23002KT 17/16 A3008 RMK A01 T01660160  RH  096%=      5-min Rain = 0
KHA3 161302Z 24002KT 17/16 A3008 RMK A01 T01660160  RH  096%=      5-min Rain = 0
KHA3 161303Z 24002KT 17/16 A3008 RMK A01 T01670160  RH  096%=      5-min Rain = 0
KHA3 161304Z 24002KT 17/16 A3008 RMK A01 T01670161  RH  096%=      5-min Rain = 0
KHA3 161305Z 23002KT 17/16 A3008 RMK A01 T01680161  RH  096%=      5-min Rain = 0
KHA3 161306Z 23002KT 17/16 A3008 RMK A01 T01680161  RH  096%=      5-min Rain = 0
KHA3 161307Z 23002KT 17/16 A3008 RMK A01 T01680162  RH  096%=      5-min Rain = 0
KHA3 161308Z 23002KT 17/16 A3008 RMK A01 T01690162  RH  096%=      5-min Rain = 0
KHA3 161309Z 24002KT 17/16 A3008 RMK A01 T01690163  RH  096%=      5-min Rain = 0
KHA3 161310Z 24002KT 17/16 A3008 RMK A01 T01700163  RH  096%=      5-min Rain = 0
KHA3 161311Z 24002KT 17/16 A3008 RMK A01 T01700164  RH  096%=      5-min Rain = 0
KHA3 161312Z 24002KT 17/16 A3008 RMK A01 T01710164  RH  096%=      5-min Rain = 0
KHA3 161313Z 24001KT 17/17 A3008 RMK A01 T01710165  RH  096%=      5-min Rain = 0
KHA3 161314Z 23001KT 17/17 A3008 RMK A01 T01720165  RH  096%=      5-min Rain = 0
KHA3 161315Z 23001KT 17/17 A3008 RMK A01 T01720166  RH  096%=      5-min Rain = 0
KHA3 161316Z 22001KT 17/17 A3008 RMK A01 T01730166  RH  096%=      5-min Rain = 0
KHA3 161317Z 21001KT 17/17 A3008 RMK A01 T01740167  RH  096%=      5-min Rain = 0
KHA3 161318Z 20001KT 17/17 A3008 RMK A01 T01740167  RH  095%=      5-min Rain = 0
KHA3 161319Z 20001KT 18/17 A3008 RMK A01 T01750167  RH  095%=      5-min Rain = 0
KHA3 161320Z 20001KT 18/17 A3008 RMK A01 T01760168  RH  095%=      5-min Rain = 0
KHA3 161321Z 20002KT 18/17 A3008 RMK A01 T01770169  RH  095%=      5-min Rain = 0
KHA3 161322Z 18002KT 18/17 A3008 RMK A01 T01770169  RH  095%=      5-min Rain = 0
KHA3 161323Z 18002KT 18/17 A3008 RMK A01 T01780170  RH  095%=      5-min Rain = 0
KHA3 161324Z 18002KT 18/17 A3008 RMK A01 T01800171  RH  095%=      5-min Rain = 0
KHA3 161325Z 18002KT 18/17 A3008 RMK A01 T01800172  RH  095%=      5-min Rain = 0
KHA3 161326Z 17002KT 18/17 A3008 RMK A01 T01810172  RH  095%=      5-min Rain = 0
KHA3 161327Z 17002KT 18/17 A3008 RMK A01 T01820172  RH  094%=      5-min Rain = 0
KHA3 161328Z 16003KT 18/17 A3008 RMK A01 T01820173  RH  094%=      5-min Rain = 0
KHA3 161329Z 16003KT 18/17 A3008 RMK A01 T01830173  RH  094%=      5-min Rain = 0
KHA3 161330Z 17003KT 18/17 A3008 RMK A01 T01830174  RH  094%=      5-min Rain = 0
KHA3 161331Z 17003KT 18/17 A3008 RMK A01 T01840174  RH  094%=      5-min Rain = 0
KHA3 161332Z 17003KT 18/18 A3008 RMK A01 T01840175  RH  094%=      5-min Rain = 0
KHA3 161333Z 17003KT 19/18 A3008 RMK A01 T01850175  RH  094%=      5-min Rain = 0
KHA3 161334Z 17003KT 19/18 A3008 RMK A01 T01860176  RH  094%=      5-min Rain = 0
KHA3 161335Z 17003KT 19/18 A3008 RMK A01 T01870177  RH  094%=      5-min Rain = 0
KHA3 161336Z 17003KT 19/18 A3008 RMK A01 T01870176  RH  093%=      5-min Rain = 0
KHA3 161337Z 17003KT 19/18 A3008 RMK A01 T01880177  RH  093%=      5-min Rain = 0
KHA3 161338Z 17003KT 19/18 A3008 RMK A01 T01890178  RH  093%=      5-min Rain = 0
KHA3 161339Z 17003KT 19/18 A3008 RMK A01 T01890177  RH  093%=      5-min Rain = 0
KHA3 161340Z 17003KT 19/18 A3008 RMK A01 T01900177  RH  092%=      5-min Rain = 0
KHA3 161341Z 17003KT 19/18 A3008 RMK A01 T01910179  RH  093%=      5-min Rain = 0
KHA3 161342Z 17003KT 19/18 A3008 RMK A01 T01920179  RH  092%=      5-min Rain = 0
KHA3 161343Z 17003KT 19/18 A3008 RMK A01 T01920179  RH  092%=      5-min Rain = 0
KHA3 161344Z 17003KT 19/18 A3008 RMK A01 T01930179  RH  092%=      5-min Rain = 0
KHA3 161345Z 18003KT 19/18 A3008 RMK A01 T01930179  RH  092%=      5-min Rain = 0
KHA3 161346Z 18003KT 19/18 A3008 RMK A01 T01930179  RH  092%=      5-min Rain = 0
KHA3 161347Z 18003KT 19/18 A3008 RMK A01 T01940180  RH  092%=      5-min Rain = 0
KHA3 161348Z 18003KT 20/18 A3008 RMK A01 T01950181  RH  092%=      5-min Rain = 0
KHA3 161349Z 18003KT 20/18 A3008 RMK A01 T01950180  RH  091%=      5-min Rain = 0
KHA3 161350Z 18003KT 20/18 A3008 RMK A01 T01950180  RH  091%=      5-min Rain = 0
KHA3 161351Z 18003KT 20/18 A3008 RMK A01 T01960181  RH  091%=      5-min Rain = 0
KHA3 161352Z 18002KT 20/18 A3008 RMK A01 T01960180  RH  090%=      5-min Rain = 0
KHA3 161353Z 18003KT 20/18 A3008 RMK A01 T01970180  RH  090%=      5-min Rain = 0
KHA3 161354Z 18002KT 20/18 A3008 RMK A01 T01970180  RH  090%=      5-min Rain = 0
KHA3 161355Z 18002KT 20/18 A3008 RMK A01 T01980182  RH  090%=      5-min Rain = 0
KHA3 161356Z 18002KT 20/18 A3008 RMK A01 T01980182  RH  090%=      5-min Rain = 0
KHA3 161357Z 19002KT 20/18 A3008 RMK A01 T01990184  RH  091%=      5-min Rain = 0
KHA3 161358Z 18003KT 20/18 A3008 RMK A01 T02000184  RH  091%=      5-min Rain = 0
KHA3 161359Z 19003KT 20/19 A3008 RMK A01 T02010186  RH  091%=      5-min Rain = 0
KHA3 161400Z 19003KT 20/18 A3008 RMK A01 T02020183  RH  089%=      5-min Rain = 0
KHA3 161401Z 19003KT 20/18 A3008 RMK A01 T02020184  RH  089%=      5-min Rain = 0
KHA3 161402Z 19003KT 20/18 A3008 RMK A01 T02030184  RH  089%=      5-min Rain = 0
KHA3 161403Z 20002KT 20/19 A3008 RMK A01 T02040185  RH  089%=      5-min Rain = 0
KHA3 161404Z 20003KT 21/19 A3008 RMK A01 T02050186  RH  089%=      5-min Rain = 0
KHA3 161405Z 19002KT 21/19 A3008 RMK A01 T02050185  RH  089%=      5-min Rain = 0
KHA3 161406Z 20002KT 21/19 A3008 RMK A01 T02050186  RH  089%=      5-min Rain = 0
KHA3 161407Z 19003KT 21/19 A3008 RMK A01 T02060187  RH  089%=      5-min Rain = 0
KHA3 161408Z 19002KT 21/19 A3008 RMK A01 T02070188  RH  089%=      5-min Rain = 0
KHA3 161409Z 20002KT 21/19 A3008 RMK A01 T02080190  RH  090%=      5-min Rain = 0
KHA3 161410Z 19002KT 21/19 A3008 RMK A01 T02080189  RH  088%=      5-min Rain = 0
KHA3 161411Z 19003KT 21/19 A3008 RMK A01 T02090188  RH  088%=      5-min Rain = 0
KHA3 161412Z 19004KT 21/19 A3008 RMK A01 T02090186  RH  087%=      5-min Rain = 0
KHA3 161413Z 19003KT 21/19 A3008 RMK A01 T02100186  RH  086%=      5-min Rain = 0
KHA3 161414Z 19004KT 21/19 A3008 RMK A01 T02100186  RH  086%=      5-min Rain = 0
KHA3 161415Z 19004KT 21/19 A3008 RMK A01 T02100186  RH  086%=      5-min Rain = 0
KHA3 161416Z 20003KT 21/19 A3008 RMK A01 T02110188  RH  087%=      5-min Rain = 0
KHA3 161417Z 19005KT 21/19 A3008 RMK A01 T02120190  RH  087%=      5-min Rain = 0
KHA3 161418Z 20005KT 21/19 A3008 RMK A01 T02130188  RH  086%=      5-min Rain = 0
KHA3 161419Z 21004KT 21/19 A3008 RMK A01 T02130188  RH  086%=      5-min Rain = 0
KHA3 161420Z 21003KT 21/19 A3008 RMK A01 T02140190  RH  086%=      5-min Rain = 0
KHA3 161421Z 21003KT 21/19 A3008 RMK A01 T02140190  RH  086%=      5-min Rain = 0
KHA3 161422Z 19003KT 22/19 A3008 RMK A01 T02150191  RH  086%=      5-min Rain = 0
KHA3 161423Z 20004KT 22/19 A3008 RMK A01 T02150191  RH  086%=      5-min Rain = 0
KHA3 161424Z 20005KT 22/19 A3008 RMK A01 T02160190  RH  085%=      5-min Rain = 0
KHA3 161425Z 20005KT 22/19 A3008 RMK A01 T02170190  RH  085%=      5-min Rain = 0
KHA3 161426Z 20004KT 22/19 A3008 RMK A01 T02170191  RH  085%=      5-min Rain = 0
KHA3 161427Z 21004KT 22/19 A3008 RMK A01 T02180190  RH  084%=      5-min Rain = 0
KHA3 161428Z 19004KT 22/19 A3008 RMK A01 T02180190  RH  084%=      5-min Rain = 0
KHA3 161429Z 21004KT 22/19 A3008 RMK A01 T02190191  RH  084%=      5-min Rain = 0
KHA3 161430Z 21004KT 22/19 A3008 RMK A01 T02200192  RH  084%=      5-min Rain = 0
KHA3 161431Z 20004KT 22/19 A3008 RMK A01 T02210190  RH  083%=      5-min Rain = 0
KHA3 161432Z 19004KT 22/19 A3008 RMK A01 T02210191  RH  083%=      5-min Rain = 0
KHA3 161433Z 19004KT 22/19 A3008 RMK A01 T02230194  RH  084%=      5-min Rain = 0
KHA3 161434Z 19004KT 22/19 A3008 RMK A01 T02240193  RH  082%=      5-min Rain = 0
KHA3 161435Z 20004KT 23/19 A3008 RMK A01 T02250190  RH  081%=      5-min Rain = 0
KHA3 161436Z 19004KT 23/19 A3008 RMK A01 T02250192  RH  082%=      5-min Rain = 0
KHA3 161437Z 19004KT 23/19 A3008 RMK A01 T02250192  RH  081%=      5-min Rain = 0
KHA3 161438Z 21002KT 23/19 A3008 RMK A01 T02250193  RH  082%=      5-min Rain = 0
KHA3 161439Z 20004KT 23/19 A3008 RMK A01 T02260194  RH  082%=      5-min Rain = 0
KHA3 161440Z 19006KT 23/19 A3008 RMK A01 T02270191  RH  080%=      5-min Rain = 0
KHA3 161441Z 20005KT 23/19 A3008 RMK A01 T02270189  RH  079%=      5-min Rain = 0
KHA3 161442Z 20004KT 23/19 A3008 RMK A01 T02280191  RH  080%=      5-min Rain = 0
KHA3 161443Z 20005KT 23/19 A3008 RMK A01 T02300194  RH  080%=      5-min Rain = 0
KHA3 161444Z 18006KT 23/19 A3008 RMK A01 T02310190  RH  078%=      5-min Rain = 0
KHA3 161445Z 18007KT 23/19 A3008 RMK A01 T02320189  RH  077%=      5-min Rain = 0
KHA3 161446Z 19007KT 23/19 A3008 RMK A01 T02320188  RH  076%=      5-min Rain = 0
KHA3 161447Z 18006KT 23/19 A3008 RMK A01 T02320188  RH  076%=      5-min Rain = 0
KHA3 161448Z 18008KT 23/19 A3008 RMK A01 T02320186  RH  075%=      5-min Rain = 0
KHA3 161449Z 18008KT 23/19 A3008 RMK A01 T02320186  RH  075%=      5-min Rain = 0
KHA3 161450Z 18008KT 23/19 A3008 RMK A01 T02330187  RH  076%=      5-min Rain = 0
KHA3 161451Z 18007KT 23/19 A3008 RMK A01 T02330186  RH  075%=      5-min Rain = 0
KHA3 161452Z 19007KT 23/19 A3008 RMK A01 T02340188  RH  076%=      5-min Rain = 0
KHA3 161453Z 20007KT 24/19 A3008 RMK A01 T02350186  RH  074%=      5-min Rain = 0
KHA3 161454Z 20007KT 24/19 A3008 RMK A01 T02360187  RH  074%=      5-min Rain = 0
KHA3 161455Z 20007KT 24/19 A3008 RMK A01 T02360188  RH  074%=      5-min Rain = 0
KHA3 161456Z 21007KT 24/19 A3009 RMK A01 T02360187  RH  074%=      5-min Rain = 0
KHA3 161457Z 20008KT 24/19 A3009 RMK A01 T02370186  RH  073%=      5-min Rain = 0
KHA3 161458Z 20008KT 24/19 A3009 RMK A01 T02370187  RH  073%=      5-min Rain = 0
KHA3 161459Z 20008KT 24/19 A3009 RMK A01 T02380186  RH  073%=      5-min Rain = 0
KHA3 161500Z 20008KT 24/19 A3009 RMK A01 T02380186  RH  072%=      5-min Rain = 0
KHA3 161501Z 20006KT 24/19 A3009 RMK A01 T02390185  RH  072%=      5-min Rain = 0
KHA3 161502Z 20007KT 24/19 A3009 RMK A01 T02390186  RH  072%=      5-min Rain = 0
KHA3 161503Z 20008KT 24/19 A3009 RMK A01 T02390186  RH  072%=      5-min Rain = 0
KHA3 161504Z 20008KT 24/19 A3009 RMK A01 T02390185  RH  072%=      5-min Rain = 0
KHA3 161505Z 20009KT 24/19 A3009 RMK A01 T02400185  RH  071%=      5-min Rain = 0
KHA3 161506Z 19009KT 24/18 A3009 RMK A01 T02400184  RH  071%=      5-min Rain = 0
KHA3 161507Z 20008KT 24/18 A3009 RMK A01 T02400184  RH  071%=      5-min Rain = 0
KHA3 161508Z 20008KT 24/19 A3009 RMK A01 T02400185  RH  071%=      5-min Rain = 0
KHA3 161509Z 21008KT 24/19 A3009 RMK A01 T02410185  RH  071%=      5-min Rain = 0
KHA3 161510Z 20009KT 24/19 A3009 RMK A01 T02410185  RH  071%=      5-min Rain = 0
KHA3 161511Z 20008KT 24/19 A3009 RMK A01 T02420186  RH  071%=      5-min Rain = 0
KHA3 161512Z 20008KT 24/19 A3009 RMK A01 T02430186  RH  071%=      5-min Rain = 0
KHA3 161513Z 20008KT 24/19 A3009 RMK A01 T02420187  RH  071%=      5-min Rain = 0
KHA3 161514Z 19008KT 24/19 A3009 RMK A01 T02430188  RH  072%=      5-min Rain = 0
KHA3 161515Z 19008KT 25/19 A3009 RMK A01 T02450189  RH  071%=      5-min Rain = 0
KHA3 161516Z 20008KT 25/19 A3009 RMK A01 T02470190  RH  071%=      5-min Rain = 0
KHA3 161517Z 20010KT 25/19 A3009 RMK A01 T02470188  RH  070%=      5-min Rain = 0
KHA3 161518Z 20008KT 25/19 A3009 RMK A01 T02460188  RH  070%=      5-min Rain = 0
KHA3 161519Z 20008KT 24/19 A3009 RMK A01 T02440188  RH  071%=      5-min Rain = 0
KHA3 161520Z 19008KT 24/19 A3009 RMK A01 T02440188  RH  071%=      5-min Rain = 0
KHA3 161521Z 19009KT 24/19 A3009 RMK A01 T02440188  RH  071%=      5-min Rain = 0
KHA3 161522Z 19008KT 24/19 A3009 RMK A01 T02440188  RH  071%=      5-min Rain = 0
KHA3 161523Z 18008KT 24/19 A3009 RMK A01 T02440189  RH  071%=      5-min Rain = 0
KHA3 161524Z 20008KT 25/19 A3009 RMK A01 T02450189  RH  071%=      5-min Rain = 0
KHA3 161525Z 19009KT 25/19 A3009 RMK A01 T02450189  RH  071%=      5-min Rain = 0
KHA3 161526Z 20006KT 25/19 A3009 RMK A01 T02450188  RH  070%=      5-min Rain = 0
KHA3 161527Z 20008KT 25/19 A3009 RMK A01 T02460189  RH  071%=      5-min Rain = 0
KHA3 161528Z 19007KT 25/19 A3009 RMK A01 T02460188  RH  070%=      5-min Rain = 0
KHA3 161529Z 21007KT 25/19 A3009 RMK A01 T02470187  RH  069%=      5-min Rain = 0
KHA3 161530Z 20008KT 25/19 A3009 RMK A01 T02490188  RH  069%=      5-min Rain = 0
KHA3 161531Z 19009KT 25/19 A3009 RMK A01 T02490187  RH  068%=      5-min Rain = 0
KHA3 161532Z 18007KT 25/19 A3009 RMK A01 T02500187  RH  068%=      5-min Rain = 0
KHA3 161533Z 19008KT 25/19 A3009 RMK A01 T02510186  RH  067%=      5-min Rain = 0
KHA3 161534Z 19009KT 25/19 A3009 RMK A01 T02520185  RH  067%=      5-min Rain = 0
KHA3 161535Z 18008KT 25/18 A3009 RMK A01 T02510184  RH  066%=      5-min Rain = 0
KHA3 161536Z 18008KT 25/18 A3009 RMK A01 T02510183  RH  066%=      5-min Rain = 0
KHA3 161537Z 19008KT 25/19 A3009 RMK A01 T02510185  RH  067%=      5-min Rain = 0
KHA3 161538Z 18008KT 25/18 A3009 RMK A01 T02510184  RH  066%=      5-min Rain = 0
KHA3 161539Z 19008KT 25/18 A3009 RMK A01 T02520183  RH  066%=      5-min Rain = 0
KHA3 161540Z 18006KT 25/19 A3009 RMK A01 T02540187  RH  067%=      5-min Rain = 0
KHA3 161541Z 18006KT 26/19 A3009 RMK A01 T02570187  RH  065%=      5-min Rain = 0
KHA3 161542Z 18007KT 26/19 A3009 RMK A01 T02580186  RH  064%=      5-min Rain = 0
KHA3 161543Z 18008KT 26/18 A3009 RMK A01 T02590183  RH  063%=      5-min Rain = 0
KHA3 161544Z 19008KT 26/18 A3009 RMK A01 T02580184  RH  064%=      5-min Rain = 0
KHA3 161545Z 17008KT 26/18 A3009 RMK A01 T02570182  RH  063%=      5-min Rain = 0
KHA3 161546Z 17009KT 26/18 A3009 RMK A01 T02560181  RH  063%=      5-min Rain = 0
KHA3 161547Z 18008KT 26/18 A3009 RMK A01 T02570177  RH  061%=      5-min Rain = 0
KHA3 161548Z 18007KT 26/18 A3009 RMK A01 T02570181  RH  063%=      5-min Rain = 0
KHA3 161549Z 19007KT 26/18 A3009 RMK A01 T02590179  RH  062%=      5-min Rain = 0
KHA3 161550Z 18007KT 26/18 A3009 RMK A01 T02590183  RH  063%=      5-min Rain = 0
KHA3 161551Z 17008KT 26/18 A3009 RMK A01 T02600181  RH  062%=      5-min Rain = 0
KHA3 161552Z 18007KT 26/18 A3009 RMK A01 T02600180  RH  061%=      5-min Rain = 0
KHA3 161553Z 19006KT 26/18 A3009 RMK A01 T02600180  RH  061%=      5-min Rain = 0
KHA3 161554Z 17007KT 26/18 A3009 RMK A01 T02610183  RH  062%=      5-min Rain = 0
KHA3 161555Z 18009KT 26/18 A3009 RMK A01 T02630181  RH  061%=      5-min Rain = 0
KHA3 161556Z 19007KT 26/18 A3009 RMK A01 T02620179  RH  060%=      5-min Rain = 0
KHA3 161557Z 18006KT 26/18 A3009 RMK A01 T02600180  RH  061%=      5-min Rain = 0
KHA3 161558Z 17007KT 26/18 A3009 RMK A01 T02600181  RH  062%=      5-min Rain = 0
KHA3 161559Z 17008KT 26/18 A3009 RMK A01 T02610182  RH  062%=      5-min Rain = 0
KHA3 161600Z 18009KT 26/18 A3009 RMK A01 T02630180  RH  060%=      5-min Rain = 0
KHA3 161601Z 17006KT 27/18 A3009 RMK A01 T02650178  RH  059%=      5-min Rain = 0
KHA3 161602Z 20007KT 27/18 A3009 RMK A01 T02650180  RH  060%=      5-min Rain = 0
KHA3 161603Z 19006KT 27/18 A3009 RMK A01 T02650181  RH  060%=      5-min Rain = 0
KHA3 161604Z 20006KT 27/18 A3009 RMK A01 T02660183  RH  060%=      5-min Rain = 0
KHA3 161605Z 18007KT 27/18 A3009 RMK A01 T02670184  RH  060%=      5-min Rain = 0
KHA3 161606Z 17007KT 27/18 A3009 RMK A01 T02680180  RH  059%=      5-min Rain = 0
KHA3 161607Z 17007KT 27/18 A3009 RMK A01 T02660182  RH  060%=      5-min Rain = 0
KHA3 161608Z 17005KT 26/18 A3009 RMK A01 T02640181  RH  060%=      5-min Rain = 0
KHA3 161609Z 18006KT 26/18 A3009 RMK A01 T02640182  RH  061%=      5-min Rain = 0
KHA3 161610Z 16007KT 27/18 A3009 RMK A01 T02670179  RH  059%=      5-min Rain = 0
KHA3 161611Z 18008KT 27/18 A3009 RMK A01 T02680178  RH  058%=      5-min Rain = 0
KHA3 161612Z 17008KT 27/17 A3009 RMK A01 T02700174  RH  056%=      5-min Rain = 0
KHA3 161613Z 18006KT 27/18 A3009 RMK A01 T02680177  RH  058%=      5-min Rain = 0
KHA3 161614Z 19006KT 27/18 A3009 RMK A01 T02670177  RH  058%=      5-min Rain = 0
KHA3 161615Z 19005KT 27/18 A3009 RMK A01 T02670175  RH  057%=      5-min Rain = 0
KHA3 161616Z 17007KT 27/18 A3009 RMK A01 T02670177  RH  058%=      5-min Rain = 0
KHA3 161617Z 16007KT 27/18 A3009 RMK A01 T02670177  RH  058%=      5-min Rain = 0
KHA3 161618Z 16006KT 27/17 A3009 RMK A01 T02680174  RH  057%=      5-min Rain = 0
KHA3 161619Z 16007KT 27/18 A3009 RMK A01 T02680176  RH  057%=      5-min Rain = 0
KHA3 161620Z 17007KT 27/18 A3009 RMK A01 T02710176  RH  056%=      5-min Rain = 0
KHA3 161621Z 20005KT 27/18 A3009 RMK A01 T02720180  RH  057%=      5-min Rain = 0
KHA3 161622Z 20005KT 27/18 A3009 RMK A01 T02730180  RH  057%=      5-min Rain = 0
KHA3 161623Z 16004KT 27/18 A3009 RMK A01 T02730176  RH  056%=      5-min Rain = 0
KHA3 161624Z 17006KT 27/18 A3009 RMK A01 T02730177  RH  056%=      5-min Rain = 0
KHA3 161625Z 19008KT 27/18 A3009 RMK A01 T02730178  RH  056%=      5-min Rain = 0
KHA3 161626Z 19006KT 27/18 A3009 RMK A01 T02710178  RH  057%=      5-min Rain = 0
KHA3 161627Z 18004KT 27/18 A3009 RMK A01 T02690177  RH  057%=      5-min Rain = 0
KHA3 161628Z 15006KT 27/18 A3009 RMK A01 T02680177  RH  057%=      5-min Rain = 0
KHA3 161629Z 15007KT 27/18 A3009 RMK A01 T02700175  RH  056%=      5-min Rain = 0
KHA3 161630Z 14005KT 27/18 A3009 RMK A01 T02710178  RH  057%=      5-min Rain = 0
KHA3 161631Z 14005KT 28/18 A3009 RMK A01 T02750180  RH  056%=      5-min Rain = 0
KHA3 161632Z 17007KT 28/18 A3009 RMK A01 T02770178  RH  055%=      5-min Rain = 0
KHA3 161633Z 18008KT 28/17 A3009 RMK A01 T02770173  RH  053%=      5-min Rain = 0
KHA3 161634Z 15006KT 27/17 A3009 RMK A01 T02740174  RH  055%=      5-min Rain = 0
KHA3 161635Z 16007KT 27/17 A3009 RMK A01 T02730172  RH  054%=      5-min Rain = 0
KHA3 161636Z 17006KT 27/17 A3009 RMK A01 T02730171  RH  053%=      5-min Rain = 0
KHA3 161637Z 17005KT 27/17 A3009 RMK A01 T02740168  RH  052%=      5-min Rain = 0
KHA3 161638Z 16006KT 27/17 A3009 RMK A01 T02740170  RH  053%=      5-min Rain = 0
KHA3 161639Z 14004KT 28/17 A3009 RMK A01 T02750169  RH  052%=      5-min Rain = 0
KHA3 161640Z 13003KT 28/17 A3009 RMK A01 T02760170  RH  052%=      5-min Rain = 0
KHA3 161641Z 13004KT 28/17 A3009 RMK A01 T02760173  RH  053%=      5-min Rain = 0
KHA3 161642Z 14006KT 28/17 A3009 RMK A01 T02770172  RH  053%=      5-min Rain = 0
KHA3 161643Z 15007KT 28/17 A3009 RMK A01 T02780170  RH  052%=      5-min Rain = 0
KHA3 161644Z 19006KT 28/17 A3009 RMK A01 T02790165  RH  050%=      5-min Rain = 0
KHA3 161645Z 20004KT 28/17 A3009 RMK A01 T02780165  RH  050%=      5-min Rain = 0
KHA3 161646Z 21007KT 28/17 A3009 RMK A01 T02770169  RH  052%=      5-min Rain = 0
KHA3 161647Z 21005KT 28/16 A3009 RMK A01 T02790164  RH  050%=      5-min Rain = 0
KHA3 161648Z 21003KT 28/16 A3009 RMK A01 T02770164  RH  050%=      5-min Rain = 0
KHA3 161649Z 17006KT 28/17 A3009 RMK A01 T02760167  RH  051%=      5-min Rain = 0
KHA3 161650Z 16003KT 28/17 A3009 RMK A01 T02780165  RH  050%=      5-min Rain = 0
KHA3 161651Z 19005KT 28/16 A3009 RMK A01 T02800163  RH  049%=      5-min Rain = 0
KHA3 161652Z 20006KT 28/17 A3009 RMK A01 T02800165  RH  050%=      5-min Rain = 0
KHA3 161653Z 20005KT 28/16 A3009 RMK A01 T02800163  RH  049%=      5-min Rain = 0
KHA3 161654Z 20004KT 28/16 A3009 RMK A01 T02780161  RH  049%=      5-min Rain = 0
KHA3 161655Z 18005KT 28/17 A3009 RMK A01 T02780165  RH  050%=      5-min Rain = 0
KHA3 161656Z 18006KT 28/16 A3009 RMK A01 T02780163  RH  049%=      5-min Rain = 0
KHA3 161657Z 17003KT 28/16 A3009 RMK A01 T02790162  RH  049%=      5-min Rain = 0
KHA3 161658Z 14002KT 28/16 A3009 RMK A01 T02790162  RH  049%=      5-min Rain = 0
KHA3 161659Z 17004KT 28/16 A3009 RMK A01 T02790163  RH  049%=      5-min Rain = 0
KHA3 161700Z 19004KT 28/16 A3009 RMK A01 T02790160  RH  048%=      5-min Rain = 0
KHA3 161701Z 14003KT 28/16 A3009 RMK A01 T02800158  RH  047%=      5-min Rain = 0
KHA3 161702Z 12003KT 28/15 A3009 RMK A01 T02810153  RH  046%=      5-min Rain = 0
KHA3 161703Z 11003KT 28/16 A3009 RMK A01 T02810159  RH  047%=      5-min Rain = 0
KHA3 161704Z 19003KT 28/17 A3009 RMK A01 T02830165  RH  049%=      5-min Rain = 0
KHA3 161705Z 19005KT 29/17 A3009 RMK A01 T02860165  RH  048%=      5-min Rain = 0
KHA3 161706Z 18006KT 29/17 A3009 RMK A01 T02860165  RH  048%=      5-min Rain = 0
KHA3 161707Z 15005KT 29/16 A3009 RMK A01 T02850161  RH  047%=      5-min Rain = 0
KHA3 161708Z 14003KT 28/16 A3009 RMK A01 T02830158  RH  047%=      5-min Rain = 0
KHA3 161709Z 19002KT 28/16 A3009 RMK A01 T02820162  RH  048%=      5-min Rain = 0
KHA3 161710Z 13001KT 28/17 A3009 RMK A01 T02840165  RH  049%=      5-min Rain = 0
KHA3 161711Z 20004KT 29/17 A3009 RMK A01 T02870166  RH  048%=      5-min Rain = 0
KHA3 161712Z 21005KT 29/17 A3009 RMK A01 T02890165  RH  047%=      5-min Rain = 0
KHA3 161713Z 19008KT 29/16 A3009 RMK A01 T02890163  RH  047%=      5-min Rain = 0
KHA3 161714Z 18007KT 29/16 A3009 RMK A01 T02880158  RH  045%=      5-min Rain = 0
KHA3 161715Z 16007KT 29/16 A3009 RMK A01 T02880162  RH  047%=      5-min Rain = 0
KHA3 161716Z 16005KT 29/16 A3009 RMK A01 T02860160  RH  046%=      5-min Rain = 0
KHA3 161717Z 16004KT 29/16 A3009 RMK A01 T02860159  RH  046%=      5-min Rain = 0
KHA3 161718Z 12003KT 29/16 A3009 RMK A01 T02850158  RH  046%=      5-min Rain = 0
KHA3 161719Z 08002KT 28/16 A3009 RMK A01 T02840157  RH  046%=      5-min Rain = 0
KHA3 161720Z 16002KT 28/16 A3009 RMK A01 T02830159  RH  047%=      5-min Rain = 0
KHA3 161721Z 15004KT 29/16 A3009 RMK A01 T02850160  RH  047%=      5-min Rain = 0
KHA3 161722Z 15002KT 29/16 A3009 RMK A01 T02880158  RH  045%=      5-min Rain = 0
KHA3 161723Z 19004KT 29/16 A3009 RMK A01 T02910159  RH  045%=      5-min Rain = 0
KHA3 161724Z 16005KT 29/16 A3009 RMK A01 T02910159  RH  045%=      5-min Rain = 0
KHA3 161725Z 14004KT 29/16 A3009 RMK A01 T02910160  RH  045%=      5-min Rain = 0
KHA3 161726Z 13007KT 29/16 A3009 RMK A01 T02910159  RH  045%=      5-min Rain = 0
KHA3 161727Z 13007KT 29/16 A3009 RMK A01 T02920162  RH  045%=      5-min Rain = 0
KHA3 161728Z 13006KT 29/16 A3009 RMK A01 T02910161  RH  045%=      5-min Rain = 0
KHA3 161729Z 11005KT 29/16 A3008 RMK A01 T02900164  RH  046%=      5-min Rain = 0
KHA3 161730Z 12005KT 29/17 A3008 RMK A01 T02890167  RH  048%=      5-min Rain = 0
KHA3 161731Z 14005KT 29/17 A3008 RMK A01 T02910168  RH  048%=      5-min Rain = 0
KHA3 161732Z 14004KT 29/17 A3008 RMK A01 T02930167  RH  047%=      5-min Rain = 0
KHA3 161733Z 13005KT 29/17 A3008 RMK A01 T02920167  RH  047%=      5-min Rain = 0
KHA3 161734Z 15005KT 29/17 A3008 RMK A01 T02930168  RH  047%=      5-min Rain = 0
KHA3 161735Z 16007KT 29/17 A3008 RMK A01 T02940168  RH  047%=      5-min Rain = 0
KHA3 161736Z 17008KT 29/17 A3008 RMK A01 T02930167  RH  047%=      5-min Rain = 0
KHA3 161737Z 17005KT 29/17 A3008 RMK A01 T02920165  RH  046%=      5-min Rain = 0
KHA3 161738Z 19004KT 29/17 A3008 RMK A01 T02890165  RH  047%=      5-min Rain = 0
KHA3 161739Z 21005KT 29/17 A3008 RMK A01 T02880167  RH  048%=      5-min Rain = 0
KHA3 161740Z 23005KT 29/16 A3008 RMK A01 T02890164  RH  047%=      5-min Rain = 0
KHA3 161741Z 23006KT 29/16 A3008 RMK A01 T02890163  RH  046%=      5-min Rain = 0
KHA3 161742Z 20004KT 29/16 A3008 RMK A01 T02880156  RH  045%=      5-min Rain = 0
KHA3 161743Z 20001KT 29/16 A3008 RMK A01 T02880156  RH  045%=      5-min Rain = 0
KHA3 161744Z 22001KT 29/16 A3008 RMK A01 T02880157  RH  045%=      5-min Rain = 0
KHA3 161745Z 16003KT 29/16 A3008 RMK A01 T02890160  RH  046%=      5-min Rain = 0
KHA3 161746Z 15006KT 29/16 A3008 RMK A01 T02910164  RH  046%=      5-min Rain = 0
KHA3 161747Z 15006KT 29/16 A3008 RMK A01 T02920164  RH  046%=      5-min Rain = 0
KHA3 161748Z 19005KT 29/16 A3008 RMK A01 T02920164  RH  046%=      5-min Rain = 0
KHA3 161749Z 22004KT 29/16 A3008 RMK A01 T02900161  RH  046%=      5-min Rain = 0
KHA3 161750Z 19001KT 29/16 A3008 RMK A01 T02870160  RH  046%=      5-min Rain = 0
KHA3 161751Z 19001KT 29/17 A3008 RMK A01 T02850166  RH  048%=      5-min Rain = 0
KHA3 161752Z 19002KT 29/17 A3008 RMK A01 T02870165  RH  047%=      5-min Rain = 0
KHA3 161753Z 15002KT 29/16 A3008 RMK A01 T02900163  RH  046%=      5-min Rain = 0
KHA3 161754Z 10005KT 29/16 A3008 RMK A01 T02920164  RH  046%=      5-min Rain = 0
KHA3 161755Z 09007KT 29/16 A3008 RMK A01 T02940164  RH  045%=      5-min Rain = 0
KHA3 161756Z 08009KT 30/17 A3008 RMK A01 T02950165  RH  046%=      5-min Rain = 0
KHA3 161757Z 09005KT 29/16 A3008 RMK A01 T02930162  RH  045%=      5-min Rain = 0
KHA3 161758Z 07004KT 29/16 A3008 RMK A01 T02900163  RH  046%=      5-min Rain = 0
KHA3 161759Z 05005KT 29/17 A3008 RMK A01 T02910165  RH  046%=      5-min Rain = 0
KHA3 161800Z 04001KT 29/16 A3008 RMK A01 T02920158  RH  044%=      5-min Rain = 0
KHA3 161801Z 11000KT 29/16 A3008 RMK A01 T02910162  RH  046%=      5-min Rain = 0
KHA3 161802Z 12004KT 29/17 A3008 RMK A01 T02920165  RH  046%=      5-min Rain = 0
KHA3 161803Z 15005KT 30/16 A3008 RMK A01 T02950163  RH  045%=      5-min Rain = 0
KHA3 161804Z 18003KT 30/17 A3008 RMK A01 T02960167  RH  046%=      5-min Rain = 0
KHA3 161805Z 21004KT 30/17 A3008 RMK A01 T02980166  RH  045%=      5-min Rain = 0
KHA3 161806Z 21003KT 30/17 A3008 RMK A01 T02980168  RH  046%=      5-min Rain = 0
KHA3 161807Z 19005KT 30/17 A3008 RMK A01 T02970167  RH  046%=      5-min Rain = 0
KHA3 161808Z 19006KT 30/17 A3007 RMK A01 T02980165  RH  045%=      5-min Rain = 0
KHA3 161809Z 20005KT 30/16 A3007 RMK A01 T02980164  RH  044%=      5-min Rain = 0
KHA3 161810Z 23004KT 30/16 A3007 RMK A01 T02970164  RH  045%=      5-min Rain = 0
KHA3 161811Z 24004KT 30/17 A3007 RMK A01 T02970166  RH  045%=      5-min Rain = 0
KHA3 161812Z 23003KT 30/16 A3007 RMK A01 T02960162  RH  044%=      5-min Rain = 0
KHA3 161813Z 20006KT 30/17 A3007 RMK A01 T02960167  RH  046%=      5-min Rain = 0
KHA3 161814Z 20006KT 30/17 A3007 RMK A01 T02970165  RH  045%=      5-min Rain = 0
KHA3 161815Z 18006KT 30/17 A3007 RMK A01 T02970167  RH  045%=      5-min Rain = 0
KHA3 161816Z 14007KT 30/16 A3007 RMK A01 T02980163  RH  044%=      5-min Rain = 0
KHA3 161817Z 15008KT 30/16 A3007 RMK A01 T02970162  RH  044%=      5-min Rain = 0
KHA3 161818Z 16005KT 30/16 A3007 RMK A01 T02950164  RH  045%=      5-min Rain = 0
KHA3 161819Z 13002KT 30/16 A3007 RMK A01 T02950164  RH  045%=      5-min Rain = 0
KHA3 161820Z 13004KT 30/16 A3007 RMK A01 T02960163  RH  045%=      5-min Rain = 0
KHA3 161821Z 12001KT 30/17 A3007 RMK A01 T02970166  RH  045%=      5-min Rain = 0
KHA3 161822Z 15005KT 30/16 A3007 RMK A01 T02970163  RH  044%=      5-min Rain = 0
KHA3 161823Z 18002KT 30/16 A3007 RMK A01 T02980162  RH  044%=      5-min Rain = 0
KHA3 161824Z 11004KT 30/17 A3007 RMK A01 T02980168  RH  046%=      5-min Rain = 0
KHA3 161825Z 10007KT 30/16 A3007 RMK A01 T03010164  RH  044%=      5-min Rain = 0
KHA3 161826Z 12004KT 30/16 A3007 RMK A01 T03010163  RH  044%=      5-min Rain = 0
KHA3 161827Z 14002KT 30/16 A3007 RMK A01 T03000164  RH  044%=      5-min Rain = 0
KHA3 161828Z 16005KT 30/16 A3007 RMK A01 T03000164  RH  044%=      5-min Rain = 0
KHA3 161829Z 15004KT 30/17 A3007 RMK A01 T03010167  RH  044%=      5-min Rain = 0
KHA3 161830Z 19007KT 30/17 A3007 RMK A01 T03040165  RH  043%=      5-min Rain = 0
KHA3 161831Z 18009KT 30/16 A3007 RMK A01 T03020163  RH  043%=      5-min Rain = 0
KHA3 161832Z 16007KT 30/16 A3007 RMK A01 T02990160  RH  043%=      5-min Rain = 0
KHA3 161833Z 16005KT 30/16 A3007 RMK A01 T02970162  RH  044%=      5-min Rain = 0
KHA3 161834Z 18006KT 30/16 A3007 RMK A01 T02980162  RH  044%=      5-min Rain = 0
KHA3 161835Z 17005KT 30/16 A3007 RMK A01 T02980162  RH  044%=      5-min Rain = 0
KHA3 161836Z 16003KT 30/16 A3007 RMK A01 T02980159  RH  043%=      5-min Rain = 0
KHA3 161837Z 15000KT 30/16 A3007 RMK A01 T02980161  RH  044%=      5-min Rain = 0
KHA3 161838Z 12003KT 30/16 A3007 RMK A01 T02980164  RH  044%=      5-min Rain = 0
KHA3 161839Z 09004KT 30/16 A3007 RMK A01 T03000160  RH  043%=      5-min Rain = 0
KHA3 161840Z 02002KT 30/16 A3007 RMK A01 T02990156  RH  042%=      5-min Rain = 0
KHA3 161841Z 18000KT 30/16 A3007 RMK A01 T02960157  RH  043%=      5-min Rain = 0
KHA3 161842Z 18005KT 30/16 A3007 RMK A01 T02960163  RH  045%=      5-min Rain = 0
KHA3 161843Z 19005KT 30/16 A3007 RMK A01 T03000159  RH  043%=      5-min Rain = 0
KHA3 161844Z 19006KT 30/16 A3007 RMK A01 T03010161  RH  043%=      5-min Rain = 0
KHA3 161845Z 19005KT 30/16 A3007 RMK A01 T03010158  RH  042%=      5-min Rain = 0
KHA3 161846Z 20005KT 30/16 A3007 RMK A01 T02990159  RH  043%=      5-min Rain = 0
KHA3 161847Z 18003KT 30/16 A3007 RMK A01 T02980157  RH  042%=      5-min Rain = 0
KHA3 161848Z 18003KT 30/16 A3007 RMK A01 T02970157  RH  042%=      5-min Rain = 0
KHA3 161849Z 17004KT 30/16 A3007 RMK A01 T02970157  RH  043%=      5-min Rain = 0
KHA3 161850Z 17004KT 30/16 A3007 RMK A01 T02980156  RH  042%=      5-min Rain = 0
KHA3 161851Z 15004KT 30/16 A3007 RMK A01 T02990162  RH  044%=      5-min Rain = 0
KHA3 161852Z 16001KT 30/16 A3007 RMK A01 T03020158  RH  042%=      5-min Rain = 0
KHA3 161853Z 20000KT 30/16 A3007 RMK A01 T03030157  RH  041%=      5-min Rain = 0
KHA3 161854Z 17003KT 30/16 A3007 RMK A01 T03040157  RH  041%=      5-min Rain = 0
KHA3 161855Z 15004KT 30/16 A3007 RMK A01 T03030159  RH  042%=      5-min Rain = 0
KHA3 161856Z 15003KT 31/16 A3007 RMK A01 T03050160  RH  042%=      5-min Rain = 0
KHA3 161857Z 15004KT 31/16 A3007 RMK A01 T03050158  RH  041%=      5-min Rain = 0
KHA3 161858Z 13001KT 30/16 A3007 RMK A01 T03030156  RH  041%=      5-min Rain = 0
KHA3 161859Z 34001KT 30/16 A3006 RMK A01 T02980155  RH  042%=      5-min Rain = 0
KHA3 161900Z 25004KT 30/16 A3006 RMK A01 T02960162  RH  044%=      5-min Rain = 0
KHA3 161901Z 28003KT 30/16 A3006 RMK A01 T02960157  RH  043%=      5-min Rain = 0
KHA3 161902Z 27003KT 30/16 A3006 RMK A01 T02950157  RH  043%=      5-min Rain = 0
KHA3 161903Z 28002KT 29/16 A3006 RMK A01 T02940157  RH  043%=      5-min Rain = 0
KHA3 161904Z 30002KT 30/16 A3006 RMK A01 T02950161  RH  044%=      5-min Rain = 0
KHA3 161905Z 07001KT 30/16 A3006 RMK A01 T02970156  RH  042%=      5-min Rain = 0
KHA3 161906Z 04002KT 30/16 A3006 RMK A01 T02980160  RH  043%=      5-min Rain = 0
KHA3 161907Z 01001KT 30/16 A3006 RMK A01 T02990162  RH  043%=      5-min Rain = 0
KHA3 161908Z 03003KT 30/16 A3006 RMK A01 T03010163  RH  044%=      5-min Rain = 0
KHA3 161909Z 01003KT 30/17 A3006 RMK A01 T03020165  RH  044%=      5-min Rain = 0
KHA3 161910Z 02004KT 31/17 A3006 RMK A01 T03050167  RH  044%=      5-min Rain = 0
KHA3 161911Z 01006KT 31/17 A3006 RMK A01 T03060165  RH  043%=      5-min Rain = 0
KHA3 161912Z 02009KT 31/17 A3006 RMK A01 T03050167  RH  044%=      5-min Rain = 0
KHA3 161913Z 09015KT 31/17 A3005 RMK A01 T03060165  RH  043%=      5-min Rain = 0
KHA3 161914Z 12007KT 31/16 A3006 RMK A01 T03070161  RH  041%=      5-min Rain = 0
KHA3 161915Z 13003KT 30/17 A3006 RMK A01 T03040165  RH  043%=      5-min Rain = 0
KHA3 161916Z 18003KT 31/16 A3006 RMK A01 T03060163  RH  042%=      5-min Rain = 0
KHA3 161917Z 17005KT 31/16 A3006 RMK A01 T03080161  RH  041%=      5-min Rain = 0
KHA3 161918Z 16005KT 31/17 A3006 RMK A01 T03070165  RH  042%=      5-min Rain = 0
KHA3 161919Z 15007KT 31/17 A3006 RMK A01 T03090165  RH  042%=      5-min Rain = 0
KHA3 161920Z 13004KT 31/16 A3006 RMK A01 T03090159  RH  040%=      5-min Rain = 0
KHA3 161921Z 15002KT 31/16 A3006 RMK A01 T03060160  RH  041%=      5-min Rain = 0
KHA3 161922Z 19004KT 31/16 A3006 RMK A01 T03050160  RH  042%=      5-min Rain = 0
KHA3 161923Z 12004KT 31/16 A3006 RMK A01 T03050161  RH  042%=      5-min Rain = 0
KHA3 161924Z 12006KT 31/16 A3006 RMK A01 T03060162  RH  042%=      5-min Rain = 0
KHA3 161925Z 10008KT 31/17 A3006 RMK A01 T03070166  RH  043%=      5-min Rain = 0
KHA3 161926Z 10009KT 31/16 A3006 RMK A01 T03070163  RH  042%=      5-min Rain = 0
KHA3 161927Z 11007KT 31/16 A3006 RMK A01 T03060164  RH  042%=      5-min Rain = 0
KHA3 161928Z 10005KT 31/16 A3006 RMK A01 T03060164  RH  043%=      5-min Rain = 0
KHA3 161929Z 12004KT 30/16 A3006 RMK A01 T03040164  RH  043%=      5-min Rain = 0
KHA3 161930Z 13005KT 30/17 A3006 RMK A01 T03040166  RH  044%=      5-min Rain = 0
KHA3 161931Z 11009KT 31/17 A3006 RMK A01 T03050170  RH  044%=      5-min Rain = 0
KHA3 161932Z 09010KT 31/17 A3006 RMK A01 T03090173  RH  044%=      5-min Rain = 0
KHA3 161933Z 10010KT 31/17 A3006 RMK A01 T03090170  RH  043%=      5-min Rain = 0
KHA3 161934Z 10007KT 31/17 A3006 RMK A01 T03080169  RH  043%=      5-min Rain = 0
KHA3 161935Z 09006KT 31/17 A3006 RMK A01 T03050168  RH  044%=      5-min Rain = 0
KHA3 161936Z 10005KT 30/17 A3006 RMK A01 T03030169  RH  044%=      5-min Rain = 0
KHA3 161937Z 12008KT 31/17 A3006 RMK A01 T03050171  RH  045%=      5-min Rain = 0
KHA3 161938Z 15010KT 31/17 A3006 RMK A01 T03080167  RH  043%=      5-min Rain = 0
KHA3 161939Z 13008KT 31/17 A3006 RMK A01 T03080166  RH  042%=      5-min Rain = 0
KHA3 161940Z 12008KT 31/17 A3006 RMK A01 T03070166  RH  043%=      5-min Rain = 0
KHA3 161941Z 11008KT 31/17 A3006 RMK A01 T03070165  RH  042%=      5-min Rain = 0
KHA3 161942Z 10007KT 31/16 A3005 RMK A01 T03050163  RH  042%=      5-min Rain = 0
KHA3 161943Z 09006KT 30/16 A3005 RMK A01 T03030163  RH  043%=      5-min Rain = 0
KHA3 161944Z 09003KT 30/16 A3005 RMK A01 T03010161  RH  043%=      5-min Rain = 0
KHA3 161945Z 16005KT 30/17 A3005 RMK A01 T03000166  RH  044%=      5-min Rain = 0
KHA3 161946Z 15006KT 30/17 A3005 RMK A01 T03030167  RH  044%=      5-min Rain = 0
KHA3 161947Z 16008KT 31/16 A3005 RMK A01 T03070164  RH  042%=      5-min Rain = 0
KHA3 161948Z 15008KT 31/17 A3005 RMK A01 T03070168  RH  043%=      5-min Rain = 0
KHA3 161949Z 13007KT 31/17 A3005 RMK A01 T03090172  RH  044%=      5-min Rain = 0
KHA3 161950Z 09009KT 31/17 A3005 RMK A01 T03110170  RH  043%=      5-min Rain = 0
KHA3 161951Z 09009KT 31/17 A3005 RMK A01 T03110169  RH  042%=      5-min Rain = 0
KHA3 161952Z 09009KT 31/17 A3005 RMK A01 T03090168  RH  043%=      5-min Rain = 0
KHA3 161953Z 08008KT 31/17 A3005 RMK A01 T03070168  RH  043%=      5-min Rain = 0
KHA3 161954Z 07007KT 31/17 A3005 RMK A01 T03070168  RH  043%=      5-min Rain = 0
KHA3 161955Z 07009KT 31/17 A3005 RMK A01 T03070167  RH  043%=      5-min Rain = 0
KHA3 161956Z 08009KT 31/17 A3005 RMK A01 T03060167  RH  043%=      5-min Rain = 0
KHA3 161957Z 07004KT 31/17 A3005 RMK A01 T03060167  RH  043%=      5-min Rain = 0
KHA3 161958Z 10004KT 30/17 A3005 RMK A01 T03040167  RH  044%=      5-min Rain = 0
KHA3 161959Z 12003KT 30/17 A3005 RMK A01 T03040168  RH  044%=      5-min Rain = 0
KHA3 162000Z 12009KT 31/17 A3005 RMK A01 T03060172  RH  045%=      5-min Rain = 0
KHA3 162001Z 13009KT 31/17 A3005 RMK A01 T03090168  RH  043%=      5-min Rain = 0
KHA3 162002Z 14006KT 31/17 A3005 RMK A01 T03080166  RH  042%=      5-min Rain = 0
KHA3 162003Z 16005KT 31/17 A3005 RMK A01 T03060165  RH  043%=      5-min Rain = 0
KHA3 162004Z 15006G11KT 31/17 A3005 RMK A01 T03050168  RH  044%=      5-min Rain = 0
KHA3 162005Z 11008KT 31/17 A3005 RMK A01 T03060167  RH  043%=      5-min Rain = 0
KHA3 162006Z 12008KT 31/17 A3005 RMK A01 T03070165  RH  043%=      5-min Rain = 0
KHA3 162007Z 10003KT 31/16 A3005 RMK A01 T03050164  RH  043%=      5-min Rain = 0
KHA3 162008Z 10001KT 30/16 A3005 RMK A01 T03040164  RH  043%=      5-min Rain = 0
KHA3 162009Z 11007G12KT 30/17 A3005 RMK A01 T03040167  RH  044%=      5-min Rain = 0
KHA3 162010Z 11012KT 31/17 A3004 RMK A01 T03060174  RH  045%=      5-min Rain = 0
KHA3 162011Z 10012KT 31/17 A3004 RMK A01 T03060173  RH  045%=      5-min Rain = 0
KHA3 162012Z 10009KT 30/17 A3004 RMK A01 T03040172  RH  045%=      5-min Rain = 0
KHA3 162013Z 10009KT 31/18 A3004 RMK A01 T03050176  RH  046%=      5-min Rain = 0
KHA3 162014Z 09009KT 31/17 A3004 RMK A01 T03080172  RH  044%=      5-min Rain = 0
KHA3 162015Z 07009KT 31/17 A3004 RMK A01 T03060170  RH  044%=      5-min Rain = 0
KHA3 162016Z 08009KT 31/17 A3004 RMK A01 T03050171  RH  045%=      5-min Rain = 0
KHA3 162017Z 08008KT 31/17 A3004 RMK A01 T03060172  RH  044%=      5-min Rain = 0
KHA3 162018Z 08007KT 31/17 A3004 RMK A01 T03070170  RH  044%=      5-min Rain = 0
KHA3 162019Z 09003KT 31/17 A3004 RMK A01 T03050169  RH  044%=      5-min Rain = 0
KHA3 162020Z 09005KT 30/17 A3004 RMK A01 T03040169  RH  044%=      5-min Rain = 0
KHA3 162021Z 13006KT 31/17 A3004 RMK A01 T03050169  RH  044%=      5-min Rain = 0
KHA3 162022Z 09004KT 31/17 A3004 RMK A01 T03050169  RH  044%=      5-min Rain = 0
KHA3 162023Z 12003KT 31/17 A3004 RMK A01 T03050170  RH  044%=      5-min Rain = 0
KHA3 162024Z 11001KT 31/17 A3004 RMK A01 T03060172  RH  045%=      5-min Rain = 0
KHA3 162025Z 14004KT 31/17 A3004 RMK A01 T03090172  RH  044%=      5-min Rain = 0
KHA3 162026Z 14005KT 31/17 A3004 RMK A01 T03100167  RH  042%=      5-min Rain = 0
KHA3 162027Z 09006KT 31/17 A3004 RMK A01 T03080169  RH  043%=      5-min Rain = 0
KHA3 162028Z 09006KT 31/17 A3004 RMK A01 T03060168  RH  043%=      5-min Rain = 0
KHA3 162029Z 09007KT 31/17 A3004 RMK A01 T03050168  RH  044%=      5-min Rain = 0
KHA3 162030Z 07007KT 31/17 A3004 RMK A01 T03060169  RH  044%=      5-min Rain = 0
KHA3 162031Z 06005KT 31/17 A3004 RMK A01 T03060167  RH  043%=      5-min Rain = 0
KHA3 162032Z 09003KT 31/17 A3004 RMK A01 T03050167  RH  044%=      5-min Rain = 0
KHA3 162033Z 12007KT 31/17 A3004 RMK A01 T03050171  RH  045%=      5-min Rain = 0
KHA3 162034Z 11006KT 31/17 A3004 RMK A01 T03070169  RH  044%=      5-min Rain = 0
KHA3 162035Z 10005KT 31/17 A3004 RMK A01 T03050167  RH  043%=      5-min Rain = 0
KHA3 162036Z 09008KT 30/17 A3004 RMK A01 T03040170  RH  045%=      5-min Rain = 0
KHA3 162037Z 10005KT 31/17 A3004 RMK A01 T03060171  RH  044%=      5-min Rain = 0
KHA3 162038Z 09004G9KT 31/17 A3004 RMK A01 T03060173  RH  045%=      5-min Rain = 0
KHA3 162039Z 07009KT 31/17 A3004 RMK A01 T03070172  RH  044%=      5-min Rain = 0
KHA3 162040Z 06009KT 31/17 A3004 RMK A01 T03070170  RH  044%=      5-min Rain = 0
KHA3 162041Z 05006KT 31/17 A3004 RMK A01 T03050169  RH  044%=      5-min Rain = 0
KHA3 162042Z 05006KT 30/17 A3003 RMK A01 T03040171  RH  045%=      5-min Rain = 0
KHA3 162043Z 07008KT 31/17 A3003 RMK A01 T03050171  RH  045%=      5-min Rain = 0
KHA3 162044Z 10009KT 31/17 A3003 RMK A01 T03050171  RH  045%=      5-min Rain = 0
KHA3 162045Z 12006KT 31/17 A3003 RMK A01 T03070171  RH  044%=      5-min Rain = 0
KHA3 162046Z 12008KT 31/17 A3003 RMK A01 T03080173  RH  045%=      5-min Rain = 0
KHA3 162047Z 10011KT 31/17 A3003 RMK A01 T03080174  RH  045%=      5-min Rain = 0
KHA3 162048Z 10010KT 31/17 A3003 RMK A01 T03070174  RH  045%=      5-min Rain = 0
KHA3 162049Z 10010KT 31/17 A3003 RMK A01 T03050173  RH  045%=      5-min Rain = 0
KHA3 162050Z 12008KT 30/17 A3003 RMK A01 T03040171  RH  045%=      5-min Rain = 0
KHA3 162051Z 13009KT 30/17 A3003 RMK A01 T03040172  RH  045%=      5-min Rain = 0
KHA3 162052Z 13007KT 30/17 A3003 RMK A01 T03040173  RH  045%=      5-min Rain = 0
KHA3 162053Z 10009KT 31/18 A3003 RMK A01 T03060175  RH  045%=      5-min Rain = 0
KHA3 162054Z 09007KT 31/17 A3003 RMK A01 T03080171  RH  044%=      5-min Rain = 0
KHA3 162055Z 09003KT 31/17 A3003 RMK A01 T03060170  RH  044%=      5-min Rain = 0
KHA3 162056Z 06006KT 31/17 A3003 RMK A01 T03050173  RH  045%=      5-min Rain = 0
KHA3 162057Z 06009KT 31/17 A3003 RMK A01 T03070172  RH  045%=      5-min Rain = 0
KHA3 162058Z 06008KT 31/17 A3003 RMK A01 T03060174  RH  045%=      5-min Rain = 0
KHA3 162059Z 08007KT 31/18 A3003 RMK A01 T03090175  RH  045%=      5-min Rain = 0
KHA3 162100Z 10008KT 31/17 A3003 RMK A01 T03110174  RH  044%=      5-min Rain = 0
KHA3 162101Z 09009KT 31/17 A3003 RMK A01 T03100172  RH  043%=      5-min Rain = 0
KHA3 162102Z 09007KT 31/17 A3003 RMK A01 T03070170  RH  044%=      5-min Rain = 0
KHA3 162103Z 08005KT 31/17 A3003 RMK A01 T03050168  RH  044%=      5-min Rain = 0
KHA3 162104Z 07004KT 30/17 A3003 RMK A01 T03040171  RH  045%=      5-min Rain = 0
KHA3 162105Z 07004KT 31/17 A3003 RMK A01 T03060172  RH  045%=      5-min Rain = 0
KHA3 162106Z 09008KT 31/17 A3003 RMK A01 T03080173  RH  045%=      5-min Rain = 0
KHA3 162107Z 09009KT 31/17 A3003 RMK A01 T03090172  RH  044%=      5-min Rain = 0
KHA3 162108Z 09011KT 31/17 A3003 RMK A01 T03070172  RH  044%=      5-min Rain = 0
KHA3 162109Z 09008KT 31/17 A3003 RMK A01 T03050171  RH  045%=      5-min Rain = 0
KHA3 162110Z 09008KT 30/17 A3003 RMK A01 T03040172  RH  045%=      5-min Rain = 0
KHA3 162111Z 09010KT 31/17 A3003 RMK A01 T03060173  RH  045%=      5-min Rain = 0
KHA3 162112Z 10006KT 31/17 A3003 RMK A01 T03060169  RH  044%=      5-min Rain = 0
KHA3 162113Z 08008KT 31/17 A3003 RMK A01 T03060171  RH  044%=      5-min Rain = 0
KHA3 162114Z 09008G13KT 31/17 A3003 RMK A01 T03060169  RH  044%=      5-min Rain = 0
KHA3 162115Z 09012KT 31/17 A3003 RMK A01 T03060171  RH  044%=      5-min Rain = 0
KHA3 162116Z 10011KT 31/17 A3003 RMK A01 T03060171  RH  044%=      5-min Rain = 0
KHA3 162117Z 11008KT 31/17 A3003 RMK A01 T03050170  RH  044%=      5-min Rain = 0
KHA3 162118Z 08007KT 30/17 A3003 RMK A01 T03040169  RH  044%=      5-min Rain = 0
KHA3 162119Z 08007KT 30/17 A3003 RMK A01 T03020168  RH  044%=      5-min Rain = 0
KHA3 162120Z 07007KT 30/17 A3003 RMK A01 T03010168  RH  045%=      5-min Rain = 0
KHA3 162121Z 07006KT 30/17 A3003 RMK A01 T03010171  RH  045%=      5-min Rain = 0
KHA3 162122Z 08006KT 30/17 A3003 RMK A01 T03040171  RH  045%=      5-min Rain = 0
KHA3 162123Z 07009G14KT 31/17 A3003 RMK A01 T03060173  RH  045%=      5-min Rain = 0
KHA3 162124Z 08011KT 31/17 A3003 RMK A01 T03070171  RH  044%=      5-min Rain = 0
KHA3 162125Z 10009KT 31/17 A3003 RMK A01 T03060171  RH  044%=      5-min Rain = 0
KHA3 162126Z 09007KT 31/17 A3003 RMK A01 T03060172  RH  045%=      5-min Rain = 0
KHA3 162127Z 08006KT 31/17 A3003 RMK A01 T03060171  RH  044%=      5-min Rain = 0
KHA3 162128Z 09007KT 31/17 A3003 RMK A01 T03070170  RH  044%=      5-min Rain = 0
KHA3 162129Z 08008KT 31/17 A3003 RMK A01 T03070171  RH  044%=      5-min Rain = 0
KHA3 162130Z 11006KT 31/17 A3003 RMK A01 T03090173  RH  044%=      5-min Rain = 0
KHA3 162131Z 10008KT 31/17 A3003 RMK A01 T03090171  RH  044%=      5-min Rain = 0
KHA3 162132Z 10009KT 31/17 A3003 RMK A01 T03080170  RH  043%=      5-min Rain = 0
KHA3 162133Z 09008KT 31/17 A3002 RMK A01 T03060171  RH  044%=      5-min Rain = 0
KHA3 162134Z 06008KT 31/17 A3002 RMK A01 T03070170  RH  044%=      5-min Rain = 0
KHA3 162135Z 05009KT 31/17 A3002 RMK A01 T03080169  RH  043%=      5-min Rain = 0
KHA3 162136Z 05009KT 31/17 A3002 RMK A01 T03080168  RH  043%=      5-min Rain = 0
KHA3 162137Z 06007KT 31/17 A3002 RMK A01 T03080168  RH  043%=      5-min Rain = 0
KHA3 162138Z 08010KT 31/17 A3002 RMK A01 T03070167  RH  043%=      5-min Rain = 0
KHA3 162139Z 08010KT 31/17 A3002 RMK A01 T03060168  RH  043%=      5-min Rain = 0
KHA3 162140Z 09008KT 31/17 A3002 RMK A01 T03060168  RH  044%=      5-min Rain = 0
KHA3 162141Z 08009KT 31/17 A3002 RMK A01 T03050166  RH  043%=      5-min Rain = 0
KHA3 162142Z 10007KT 30/17 A3002 RMK A01 T03040168  RH  044%=      5-min Rain = 0
KHA3 162143Z 11009KT 31/17 A3002 RMK A01 T03050166  RH  043%=      5-min Rain = 0
KHA3 162144Z 11006KT 30/17 A3002 RMK A01 T03040165  RH  043%=      5-min Rain = 0
KHA3 162145Z 11006KT 30/17 A3002 RMK A01 T03030165  RH  044%=      5-min Rain = 0
KHA3 162146Z 10007KT 30/17 A3002 RMK A01 T03030167  RH  044%=      5-min Rain = 0
KHA3 162147Z 10006KT 30/17 A3002 RMK A01 T03040165  RH  043%=      5-min Rain = 0
KHA3 162148Z 12007KT 30/17 A3002 RMK A01 T03030165  RH  043%=      5-min Rain = 0
KHA3 162149Z 13006KT 30/17 A3002 RMK A01 T03030166  RH  044%=      5-min Rain = 0
KHA3 162150Z 14009KT 30/17 A3002 RMK A01 T03040167  RH  044%=      5-min Rain = 0
KHA3 162151Z 10008KT 30/17 A3002 RMK A01 T03030167  RH  044%=      5-min Rain = 0
KHA3 162152Z 08009KT 30/17 A3002 RMK A01 T03030166  RH  044%=      5-min Rain = 0
KHA3 162153Z 08008KT 30/17 A3002 RMK A01 T03030166  RH  044%=      5-min Rain = 0
KHA3 162154Z 07005KT 30/17 A3002 RMK A01 T03030167  RH  044%=      5-min Rain = 0
KHA3 162155Z 12003KT 30/16 A3002 RMK A01 T03030164  RH  043%=      5-min Rain = 0
KHA3 162156Z 08007KT 30/17 A3002 RMK A01 T03020166  RH  044%=      5-min Rain = 0
KHA3 162157Z 06007KT 30/17 A3002 RMK A01 T03040170  RH  044%=      5-min Rain = 0
KHA3 162158Z 07010KT 31/17 A3002 RMK A01 T03060171  RH  044%=      5-min Rain = 0
KHA3 162159Z 07010KT 31/17 A3002 RMK A01 T03080172  RH  044%=      5-min Rain = 0
KHA3 162200Z 08011KT 31/17 A3002 RMK A01 T03080170  RH  044%=      5-min Rain = 0
KHA3 162201Z 07008KT 31/17 A3002 RMK A01 T03050170  RH  044%=      5-min Rain = 0
KHA3 162202Z 08007KT 30/17 A3002 RMK A01 T03030169  RH  045%=      5-min Rain = 0
KHA3 162203Z 10010KT 30/17 A3002 RMK A01 T03030170  RH  045%=      5-min Rain = 0
KHA3 162204Z 08010KT 30/17 A3002 RMK A01 T03030168  RH  044%=      5-min Rain = 0
KHA3 162205Z 09010KT 31/17 A3002 RMK A01 T03050169  RH  044%=      5-min Rain = 0
KHA3 162206Z 08009KT 31/17 A3002 RMK A01 T03050166  RH  043%=      5-min Rain = 0
KHA3 162207Z 08004KT 30/17 A3002 RMK A01 T03030166  RH  044%=      5-min Rain = 0
KHA3 162208Z 08004KT 30/17 A3002 RMK A01 T03020165  RH  044%=      5-min Rain = 0
KHA3 162209Z 07008KT 30/17 A3002 RMK A01 T03010168  RH  045%=      5-min Rain = 0
KHA3 162210Z 07010KT 30/17 A3002 RMK A01 T03030170  RH  045%=      5-min Rain = 0
KHA3 162211Z 06011KT 31/17 A3002 RMK A01 T03050171  RH  044%=      5-min Rain = 0
KHA3 162212Z 06007KT 30/17 A3002 RMK A01 T03040169  RH  044%=      5-min Rain = 0
KHA3 162213Z 05008KT 30/17 A3002 RMK A01 T03020169  RH  045%=      5-min Rain = 0
KHA3 162214Z 08012KT 30/17 A3002 RMK A01 T03020170  RH  045%=      5-min Rain = 0
KHA3 162215Z 09009KT 30/17 A3002 RMK A01 T03020169  RH  045%=      5-min Rain = 0
KHA3 162216Z 10010KT 30/17 A3002 RMK A01 T03020169  RH  045%=      5-min Rain = 0
KHA3 162217Z 10009KT 30/17 A3002 RMK A01 T03010169  RH  045%=      5-min Rain = 0
KHA3 162218Z 11008KT 30/17 A3002 RMK A01 T03000171  RH  046%=      5-min Rain = 0
KHA3 162219Z 07009KT 30/17 A3002 RMK A01 T03010171  RH  045%=      5-min Rain = 0
KHA3 162220Z 06007KT 30/17 A3002 RMK A01 T03020173  RH  046%=      5-min Rain = 0
KHA3 162221Z 09010KT 31/17 A3002 RMK A01 T03050173  RH  045%=      5-min Rain = 0
KHA3 162222Z 10009KT 31/17 A3002 RMK A01 T03050172  RH  045%=      5-min Rain = 0
KHA3 162223Z 11009KT 30/17 A3002 RMK A01 T03030171  RH  045%=      5-min Rain = 0
KHA3 162224Z 11009KT 30/17 A3002 RMK A01 T03010172  RH  046%=      5-min Rain = 0
KHA3 162225Z 07010KT 30/17 A3002 RMK A01 T03020173  RH  046%=      5-min Rain = 0
KHA3 162226Z 08011KT 30/17 A3002 RMK A01 T03030172  RH  045%=      5-min Rain = 0
KHA3 162227Z 09012KT 30/17 A3002 RMK A01 T03030171  RH  045%=      5-min Rain = 0
KHA3 162228Z 09012KT 30/17 A3002 RMK A01 T03030171  RH  045%=      5-min Rain = 0
KHA3 162229Z 10008KT 30/17 A3002 RMK A01 T03020171  RH  046%=      5-min Rain = 0
KHA3 162230Z 10010KT 30/17 A3002 RMK A01 T03010172  RH  046%=      5-min Rain = 0
KHA3 162231Z 08010KT 30/17 A3002 RMK A01 T03010170  RH  045%=      5-min Rain = 0
KHA3 162232Z 07010KT 30/17 A3002 RMK A01 T03000168  RH  045%=      5-min Rain = 0
KHA3 162233Z 09010KT 30/17 A3002 RMK A01 T02980169  RH  046%=      5-min Rain = 0
KHA3 162234Z 09010KT 30/17 A3002 RMK A01 T02980169  RH  046%=      5-min Rain = 0
KHA3 162235Z 11011KT 30/17 A3002 RMK A01 T02990170  RH  046%=      5-min Rain = 0
KHA3 162236Z 11011KT 30/17 A3002 RMK A01 T02990169  RH  045%=      5-min Rain = 0
KHA3 162237Z 10010KT 30/17 A3002 RMK A01 T02980170  RH  046%=      5-min Rain = 0
KHA3 162238Z 10010KT 30/17 A3002 RMK A01 T02990170  RH  046%=      5-min Rain = 0
KHA3 162239Z 09009KT 30/17 A3002 RMK A01 T02980170  RH  046%=      5-min Rain = 0
KHA3 162240Z 08011KT 30/17 A3002 RMK A01 T02990170  RH  046%=      5-min Rain = 0
KHA3 162241Z 08010KT 30/17 A3002 RMK A01 T03000169  RH  045%=      5-min Rain = 0
KHA3 162242Z 08009KT 30/17 A3002 RMK A01 T03000169  RH  045%=      5-min Rain = 0
KHA3 162243Z 08009KT 30/17 A3002 RMK A01 T03000168  RH  045%=      5-min Rain = 0
KHA3 162244Z 08008KT 30/17 A3002 RMK A01 T02990169  RH  046%=      5-min Rain = 0
KHA3 162245Z 08010KT 30/17 A3002 RMK A01 T02990169  RH  045%=      5-min Rain = 0
KHA3 162246Z 09009KT 30/17 A3002 RMK A01 T02980170  RH  046%=      5-min Rain = 0
KHA3 162247Z 08008KT 30/17 A3002 RMK A01 T02990169  RH  046%=      5-min Rain = 0
KHA3 162248Z 07010KT 30/17 A3002 RMK A01 T02980170  RH  046%=      5-min Rain = 0
KHA3 162249Z 07010KT 30/17 A3002 RMK A01 T02980172  RH  047%=      5-min Rain = 0
KHA3 162250Z 09008KT 30/17 A3002 RMK A01 T02970172  RH  047%=      5-min Rain = 0
KHA3 162251Z 08009KT 30/17 A3002 RMK A01 T02980174  RH  047%=      5-min Rain = 0
KHA3 162252Z 07012KT 30/18 A3002 RMK A01 T02980177  RH  048%=      5-min Rain = 0
KHA3 162253Z 06011KT 30/18 A3002 RMK A01 T02980176  RH  048%=      5-min Rain = 0
KHA3 162254Z 07012KT 30/18 A3002 RMK A01 T02970176  RH  048%=      5-min Rain = 0
KHA3 162255Z 06013KT 30/17 A3002 RMK A01 T02950173  RH  048%=      5-min Rain = 0
KHA3 162256Z 07012KT 29/17 A3002 RMK A01 T02940174  RH  048%=      5-min Rain = 0
KHA3 162257Z 07011KT 29/18 A3002 RMK A01 T02940175  RH  049%=      5-min Rain = 0
KHA3 162258Z 07012KT 29/17 A3002 RMK A01 T02930173  RH  048%=      5-min Rain = 0
KHA3 162259Z 07012KT 29/17 A3002 RMK A01 T02930173  RH  048%=      5-min Rain = 0
KHA3 162300Z 07010KT 29/18 A3002 RMK A01 T02930175  RH  049%=      5-min Rain = 0
KHA3 162301Z 07010KT 29/18 A3002 RMK A01 T02930176  RH  049%=      5-min Rain = 0
KHA3 162302Z 08010KT 29/18 A3002 RMK A01 T02930176  RH  049%=      5-min Rain = 0
KHA3 162303Z 09011KT 29/18 A3002 RMK A01 T02930175  RH  049%=      5-min Rain = 0
KHA3 162304Z 09012KT 29/18 A3002 RMK A01 T02930175  RH  049%=      5-min Rain = 0
KHA3 162305Z 09010KT 29/17 A3002 RMK A01 T02930174  RH  049%=      5-min Rain = 0
KHA3 162306Z 08012KT 29/18 A3002 RMK A01 T02930175  RH  049%=      5-min Rain = 0
KHA3 162307Z 09010KT 29/17 A3002 RMK A01 T02920174  RH  049%=      5-min Rain = 0
KHA3 162308Z 09009KT 29/18 A3003 RMK A01 T02910175  RH  049%=      5-min Rain = 0
KHA3 162309Z 07010KT 29/18 A3003 RMK A01 T02910176  RH  050%=      5-min Rain = 0
KHA3 162310Z 07009KT 29/18 A3003 RMK A01 T02910176  RH  050%=      5-min Rain = 0
KHA3 162311Z 08011KT 29/18 A3003 RMK A01 T02920177  RH  050%=      5-min Rain = 0
KHA3 162312Z 08011KT 29/18 A3003 RMK A01 T02920175  RH  049%=      5-min Rain = 0
KHA3 162313Z 07013KT 29/18 A3003 RMK A01 T02920175  RH  049%=      5-min Rain = 0
KHA3 162314Z 07011KT 29/17 A3003 RMK A01 T02910174  RH  050%=      5-min Rain = 0
KHA3 162315Z 07011KT 29/17 A3003 RMK A01 T02900174  RH  050%=      5-min Rain = 0
KHA3 162316Z 07009KT 29/17 A3003 RMK A01 T02890174  RH  050%=      5-min Rain = 0
KHA3 162317Z 07011KT 29/17 A3003 RMK A01 T02890173  RH  050%=      5-min Rain = 0
KHA3 162318Z 08011KT 29/18 A3003 RMK A01 T02890175  RH  050%=      5-min Rain = 0
KHA3 162319Z 08012KT 29/18 A3003 RMK A01 T02890175  RH  050%=      5-min Rain = 0
KHA3 162320Z 08011KT 29/18 A3003 RMK A01 T02890175  RH  050%=      5-min Rain = 0
KHA3 162321Z 08009KT 29/18 A3003 RMK A01 T02890176  RH  051%=      5-min Rain = 0
KHA3 162322Z 08011KT 29/18 A3003 RMK A01 T02890176  RH  051%=      5-min Rain = 0
KHA3 162323Z 08010KT 29/18 A3003 RMK A01 T02890176  RH  051%=      5-min Rain = 0
KHA3 162324Z 08010KT 29/18 A3003 RMK A01 T02890176  RH  051%=      5-min Rain = 0
KHA3 162325Z 08012KT 29/18 A3003 RMK A01 T02890176  RH  051%=      5-min Rain = 0
KHA3 162326Z 07011KT 29/18 A3003 RMK A01 T02890177  RH  051%=      5-min Rain = 0
KHA3 162327Z 06013KT 29/18 A3003 RMK A01 T02880177  RH  051%=      5-min Rain = 0
KHA3 162328Z 06012KT 29/18 A3003 RMK A01 T02870175  RH  051%=      5-min Rain = 0
KHA3 162329Z 06012KT 29/18 A3003 RMK A01 T02860175  RH  051%=      5-min Rain = 0
KHA3 162330Z 07011KT 29/18 A3003 RMK A01 T02860175  RH  051%=      5-min Rain = 0
KHA3 162331Z 07010KT 29/18 A3003 RMK A01 T02860176  RH  051%=      5-min Rain = 0
KHA3 162332Z 07011KT 29/18 A3003 RMK A01 T02860175  RH  051%=      5-min Rain = 0
KHA3 162333Z 07010KT 29/18 A3003 RMK A01 T02860176  RH  051%=      5-min Rain = 0
KHA3 162334Z 06008KT 29/18 A3003 RMK A01 T02860176  RH  052%=      5-min Rain = 0
KHA3 162335Z 07011KT 29/18 A3003 RMK A01 T02850176  RH  051%=      5-min Rain = 0
KHA3 162336Z 07010KT 29/18 A3003 RMK A01 T02850175  RH  051%=      5-min Rain = 0
KHA3 162337Z 07011KT 29/17 A3003 RMK A01 T02850174  RH  051%=      5-min Rain = 0
KHA3 162338Z 07010KT 28/17 A3003 RMK A01 T02840174  RH  051%=      5-min Rain = 0
KHA3 162339Z 07009KT 28/17 A3003 RMK A01 T02840174  RH  051%=      5-min Rain = 0
KHA3 162340Z 07011KT 28/17 A3004 RMK A01 T02830174  RH  051%=      5-min Rain = 0
KHA3 162341Z 07010KT 28/17 A3004 RMK A01 T02830174  RH  052%=      5-min Rain = 0
KHA3 162342Z 07009KT 28/18 A3004 RMK A01 T02820175  RH  052%=      5-min Rain = 0
KHA3 162343Z 08011KT 28/18 A3004 RMK A01 T02820175  RH  052%=      5-min Rain = 0
KHA3 162344Z 07010KT 28/18 A3004 RMK A01 T02820176  RH  052%=      5-min Rain = 0
KHA3 162345Z 08010KT 28/18 A3004 RMK A01 T02820175  RH  052%=      5-min Rain = 0
KHA3 162346Z 08012KT 28/18 A3004 RMK A01 T02810175  RH  052%=      5-min Rain = 0
KHA3 162347Z 08011KT 28/18 A3004 RMK A01 T02800175  RH  053%=      5-min Rain = 0
KHA3 162348Z 08009KT 28/18 A3004 RMK A01 T02800175  RH  053%=      5-min Rain = 0
KHA3 162349Z 08012KT 28/18 A3004 RMK A01 T02800175  RH  053%=      5-min Rain = 0
KHA3 162350Z 07011KT 28/17 A3004 RMK A01 T02790174  RH  053%=      5-min Rain = 0
KHA3 162351Z 07012KT 28/17 A3004 RMK A01 T02790174  RH  053%=      5-min Rain = 0
KHA3 162352Z 07011KT 28/17 A3004 RMK A01 T02790174  RH  053%=      5-min Rain = 0
KHA3 162353Z 07010KT 28/17 A3004 RMK A01 T02780174  RH  053%=      5-min Rain = 0
KHA3 162354Z 07010KT 28/17 A3004 RMK A01 T02780174  RH  053%=      5-min Rain = 0
KHA3 162355Z 08010KT 28/17 A3004 RMK A01 T02770174  RH  053%=      5-min Rain = 0
KHA3 162356Z 08012KT 28/17 A3004 RMK A01 T02770173  RH  053%=      5-min Rain = 0
KHA3 162357Z 07010KT 28/17 A3004 RMK A01 T02770173  RH  053%=      5-min Rain = 0
KHA3 162358Z 07009KT 28/17 A3004 RMK A01 T02770174  RH  054%=      5-min Rain = 0
KHA3 162359Z 08011KT 28/17 A3004 RMK A01 T02760173  RH  054%=      5-min Rain = 0
KHA3 170000Z 07012KT 28/17 A3004 RMK A01 T02760172  RH  053%=      5-min Rain = 0
KHA3 170001Z 06010KT 28/17 A3004 RMK A01 T02760172  RH  053%=      5-min Rain = 0
KHA3 170002Z 07009KT 28/17 A3004 RMK A01 T02760173  RH  053%=      5-min Rain = 0
KHA3 170003Z 07010KT 28/17 A3004 RMK A01 T02750173  RH  054%=      5-min Rain = 0
KHA3 170004Z 07010KT 28/17 A3004 RMK A01 T02750172  RH  053%=      5-min Rain = 0
KHA3 170005Z 07011KT 28/17 A3005 RMK A01 T02750172  RH  053%=      5-min Rain = 0
KHA3 170006Z 06010KT 27/17 A3005 RMK A01 T02740172  RH  054%=      5-min Rain = 0
KHA3 170007Z 07010KT 27/17 A3005 RMK A01 T02740172  RH  054%=      5-min Rain = 0
KHA3 170008Z 06011KT 27/17 A3005 RMK A01 T02740172  RH  054%=      5-min Rain = 0
KHA3 170009Z 07010KT 27/17 A3005 RMK A01 T02740172  RH  054%=      5-min Rain = 0
KHA3 170010Z 07009KT 27/17 A3005 RMK A01 T02730172  RH  054%=      5-min Rain = 0
KHA3 170011Z 07010KT 27/17 A3005 RMK A01 T02720172  RH  054%=      5-min Rain = 0
KHA3 170012Z 07010KT 27/17 A3005 RMK A01 T02720172  RH  054%=      5-min Rain = 0
KHA3 170013Z 06010KT 27/17 A3005 RMK A01 T02720172  RH  054%=      5-min Rain = 0
KHA3 170014Z 07009KT 27/17 A3005 RMK A01 T02710172  RH  054%=      5-min Rain = 0
KHA3 170015Z 07011KT 27/17 A3005 RMK A01 T02710172  RH  055%=      5-min Rain = 0
KHA3 170016Z 07010KT 27/17 A3005 RMK A01 T02710172  RH  055%=      5-min Rain = 0
KHA3 170017Z 07008KT 27/17 A3005 RMK A01 T02700173  RH  055%=      5-min Rain = 0
KHA3 170018Z 07009KT 27/17 A3005 RMK A01 T02700173  RH  055%=      5-min Rain = 0
KHA3 170019Z 07009KT 27/17 A3005 RMK A01 T02690173  RH  056%=      5-min Rain = 0
KHA3 170020Z 07009KT 27/17 A3005 RMK A01 T02690173  RH  056%=      5-min Rain = 0
KHA3 170021Z 07009KT 27/17 A3005 RMK A01 T02680173  RH  056%=      5-min Rain = 0
KHA3 170022Z 07010KT 27/17 A3005 RMK A01 T02680173  RH  056%=      5-min Rain = 0
KHA3 170023Z 07009KT 27/17 A3005 RMK A01 T02680173  RH  056%=      5-min Rain = 0
KHA3 170024Z 07008KT 27/17 A3005 RMK A01 T02670173  RH  056%=      5-min Rain = 0
KHA3 170025Z 07009KT 27/17 A3005 RMK A01 T02670173  RH  056%=      5-min Rain = 0
KHA3 170026Z 07010KT 27/17 A3005 RMK A01 T02660173  RH  057%=      5-min Rain = 0
KHA3 170027Z 07010KT 27/17 A3005 RMK A01 T02660173  RH  057%=      5-min Rain = 0
KHA3 170028Z 07010KT 27/17 A3005 RMK A01 T02660173  RH  057%=      5-min Rain = 0
KHA3 170029Z 07010KT 27/17 A3005 RMK A01 T02660173  RH  057%=      5-min Rain = 0
KHA3 170030Z 07009KT 27/17 A3005 RMK A01 T02650173  RH  057%=      5-min Rain = 0
KHA3 170031Z 07008KT 27/17 A3005 RMK A01 T02650173  RH  057%=      5-min Rain = 0
KHA3 170032Z 07008KT 26/17 A3005 RMK A01 T02640173  RH  057%=      5-min Rain = 0
KHA3 170033Z 07008KT 26/17 A3006 RMK A01 T02630173  RH  058%=      5-min Rain = 0
KHA3 170034Z 07008KT 26/17 A3006 RMK A01 T02630174  RH  058%=      5-min Rain = 0
KHA3 170035Z 07007KT 26/17 A3006 RMK A01 T02620173  RH  058%=      5-min Rain = 0
KHA3 170036Z 07008KT 26/17 A3006 RMK A01 T02610173  RH  059%=      5-min Rain = 0
KHA3 170037Z 07009KT 26/17 A3006 RMK A01 T02610174  RH  059%=      5-min Rain = 0
KHA3 170038Z 07009KT 26/17 A3006 RMK A01 T02610174  RH  059%=      5-min Rain = 0
KHA3 170039Z 07008KT 26/17 A3006 RMK A01 T02610173  RH  059%=      5-min Rain = 0
KHA3 170040Z 07007KT 26/17 A3006 RMK A01 T02600174  RH  059%=      5-min Rain = 0
KHA3 170041Z 07007KT 26/17 A3006 RMK A01 T02590174  RH  059%=      5-min Rain = 0
KHA3 170042Z 07007KT 26/17 A3006 RMK A01 T02590174  RH  060%=      5-min Rain = 0
KHA3 170043Z 08007KT 26/17 A3006 RMK A01 T02580174  RH  060%=      5-min Rain = 0
KHA3 170044Z 08008KT 26/17 A3006 RMK A01 T02570174  RH  060%=      5-min Rain = 0
KHA3 170045Z 07007KT 26/17 A3006 RMK A01 T02570174  RH  060%=      5-min Rain = 0
KHA3 170046Z 07007KT 26/17 A3006 RMK A01 T02560174  RH  060%=      5-min Rain = 0
KHA3 170047Z 08007KT 26/17 A3006 RMK A01 T02550174  RH  061%=      5-min Rain = 0
KHA3 170048Z 08007KT 26/17 A3006 RMK A01 T02550174  RH  061%=      5-min Rain = 0
KHA3 170049Z 08007KT 25/17 A3006 RMK A01 T02540174  RH  061%=      5-min Rain = 0
KHA3 170050Z 08007KT 25/17 A3006 RMK A01 T02540174  RH  061%=      5-min Rain = 0
KHA3 170051Z 08007KT 25/17 A3006 RMK A01 T02530174  RH  062%=      5-min Rain = 0
KHA3 170052Z 08007KT 25/17 A3006 RMK A01 T02520174  RH  062%=      5-min Rain = 0
KHA3 170053Z 08007KT 25/17 A3006 RMK A01 T02520174  RH  062%=      5-min Rain = 0
KHA3 170054Z 08007KT 25/17 A3006 RMK A01 T02510174  RH  062%=      5-min Rain = 0
KHA3 170055Z 08007KT 25/17 A3006 RMK A01 T02510174  RH  062%=      5-min Rain = 0
KHA3 170056Z 08007KT 25/17 A3006 RMK A01 T02500174  RH  063%=      5-min Rain = 0
KHA3 170057Z 08007KT 25/17 A3006 RMK A01 T02500174  RH  063%=      5-min Rain = 0
KHA3 170058Z 08007KT 25/17 A3006 RMK A01 T02490174  RH  063%=      5-min Rain = 0
KHA3 170059Z 08007KT 25/18 A3006 RMK A01 T02490175  RH  063%=      5-min Rain = 0
KHA3 170100Z 08007KT 25/17 A3006 RMK A01 T02480174  RH  064%=      5-min Rain = 0
KHA3 170101Z 08007KT 25/17 A3006 RMK A01 T02470174  RH  064%=      5-min Rain = 0
KHA3 170102Z 08007KT 25/17 A3006 RMK A01 T02460174  RH  064%=      5-min Rain = 0
KHA3 170103Z 08007KT 25/17 A3006 RMK A01 T02460174  RH  064%=      5-min Rain = 0
KHA3 170104Z 08007KT 25/17 A3006 RMK A01 T02460174  RH  064%=      5-min Rain = 0
KHA3 170105Z 08007KT 25/17 A3006 RMK A01 T02460174  RH  064%=      5-min Rain = 0
KHA3 170106Z 08007KT 25/17 A3006 RMK A01 T02460174  RH  064%=      5-min Rain = 0
KHA3 170107Z 08007KT 25/17 A3006 RMK A01 T02450174  RH  064%=      5-min Rain = 0
KHA3 170108Z 08007KT 25/17 A3006 RMK A01 T02450174  RH  065%=      5-min Rain = 0
KHA3 170109Z 08007KT 25/17 A3006 RMK A01 T02450174  RH  065%=      5-min Rain = 0
KHA3 170110Z 08007KT 25/17 A3007 RMK A01 T02450174  RH  064%=      5-min Rain = 0
KHA3 170111Z 08007KT 25/17 A3007 RMK A01 T02450174  RH  064%=      5-min Rain = 0
KHA3 170112Z 08007KT 25/17 A3007 RMK A01 T02460174  RH  064%=      5-min Rain = 0
KHA3 170113Z 08007KT 25/17 A3007 RMK A01 T02460174  RH  064%=      5-min Rain = 0
KHA3 170114Z 08008KT 25/17 A3007 RMK A01 T02460173  RH  064%=      5-min Rain = 0
KHA3 170115Z 08008KT 25/17 A3007 RMK A01 T02460173  RH  064%=      5-min Rain = 0
KHA3 170116Z 08008KT 25/17 A3007 RMK A01 T02470173  RH  064%=      5-min Rain = 0
KHA3 170117Z 08008KT 25/17 A3007 RMK A01 T02470173  RH  063%=      5-min Rain = 0
KHA3 170118Z 08008KT 25/17 A3007 RMK A01 T02470173  RH  063%=      5-min Rain = 0
KHA3 170119Z 08008KT 25/17 A3007 RMK A01 T02470173  RH  063%=      5-min Rain = 0
KHA3 170120Z 08008KT 25/17 A3007 RMK A01 T02470173  RH  064%=      5-min Rain = 0
KHA3 170121Z 08008KT 25/17 A3007 RMK A01 T02470173  RH  064%=      5-min Rain = 0
KHA3 170122Z 08008KT 25/17 A3007 RMK A01 T02470173  RH  063%=      5-min Rain = 0
KHA3 170123Z 08009KT 25/17 A3007 RMK A01 T02480173  RH  063%=      5-min Rain = 0
KHA3 170124Z 08008KT 25/17 A3007 RMK A01 T02490174  RH  063%=      5-min Rain = 0
KHA3 170125Z 08008KT 25/17 A3007 RMK A01 T02480174  RH  063%=      5-min Rain = 0
KHA3 170126Z 09008KT 25/17 A3007 RMK A01 T02480173  RH  063%=      5-min Rain = 0
KHA3 170127Z 09007KT 25/17 A3007 RMK A01 T02480173  RH  063%=      5-min Rain = 0
KHA3 170128Z 09008KT 25/17 A3007 RMK A01 T02480173  RH  063%=      5-min Rain = 0
KHA3 170129Z 09008KT 25/17 A3007 RMK A01 T02480172  RH  063%=      5-min Rain = 0
KHA3 170130Z 09007KT 25/17 A3007 RMK A01 T02480173  RH  063%=      5-min Rain = 0
KHA3 170131Z 09007KT 25/17 A3007 RMK A01 T02480173  RH  063%=      5-min Rain = 0
KHA3 170132Z 09007KT 25/17 A3007 RMK A01 T02470173  RH  063%=      5-min Rain = 0
KHA3 170133Z 09007KT 25/17 A3007 RMK A01 T02470173  RH  063%=      5-min Rain = 0
KHA3 170134Z 09007KT 25/17 A3007 RMK A01 T02460173  RH  064%=      5-min Rain = 0
KHA3 170135Z 09006KT 25/17 A3007 RMK A01 T02460173  RH  064%=      5-min Rain = 0
KHA3 170136Z 09006KT 25/17 A3007 RMK A01 T02450173  RH  064%=      5-min Rain = 0
KHA3 170137Z 09006KT 25/17 A3007 RMK A01 T02450173  RH  064%=      5-min Rain = 0
KHA3 170138Z 09006KT 24/17 A3007 RMK A01 T02440173  RH  065%=      5-min Rain = 0
KHA3 170139Z 09007KT 24/17 A3007 RMK A01 T02430174  RH  065%=      5-min Rain = 0
KHA3 170140Z 09006KT 24/17 A3007 RMK A01 T02420173  RH  066%=      5-min Rain = 0
KHA3 170141Z 09006KT 24/17 A3007 RMK A01 T02410174  RH  066%=      5-min Rain = 0
KHA3 170142Z 09006KT 24/17 A3007 RMK A01 T02400174  RH  066%=      5-min Rain = 0
KHA3 170143Z 09006KT 24/17 A3007 RMK A01 T02390174  RH  067%=      5-min Rain = 0
KHA3 170144Z 09006KT 24/17 A3007 RMK A01 T02390174  RH  067%=      5-min Rain = 0
KHA3 170145Z 09007KT 24/17 A3007 RMK A01 T02380174  RH  067%=      5-min Rain = 0
KHA3 170146Z 09007KT 24/17 A3007 RMK A01 T02380174  RH  067%=      5-min Rain = 0
KHA3 170147Z 09007KT 24/17 A3007 RMK A01 T02370174  RH  068%=      5-min Rain = 0
KHA3 170148Z 09007KT 24/17 A3007 RMK A01 T02370174  RH  068%=      5-min Rain = 0
KHA3 170149Z 09007KT 24/17 A3008 RMK A01 T02370174  RH  068%=      5-min Rain = 0
KHA3 170150Z 09007KT 24/17 A3008 RMK A01 T02360174  RH  068%=      5-min Rain = 0
KHA3 170151Z 09006KT 24/17 A3008 RMK A01 T02360174  RH  068%=      5-min Rain = 0
KHA3 170152Z 09006KT 24/17 A3008 RMK A01 T02360174  RH  068%=      5-min Rain = 0
KHA3 170153Z 09006KT 24/17 A3008 RMK A01 T02360174  RH  068%=      5-min Rain = 0
KHA3 170154Z 09006KT 24/17 A3008 RMK A01 T02350174  RH  069%=      5-min Rain = 0
KHA3 170155Z 09006KT 24/17 A3008 RMK A01 T02350174  RH  069%=      5-min Rain = 0
KHA3 170156Z 09006KT 24/17 A3008 RMK A01 T02350174  RH  069%=      5-min Rain = 0
KHA3 170157Z 09006KT 24/17 A3008 RMK A01 T02350174  RH  069%=      5-min Rain = 0
KHA3 170158Z 09006KT 24/17 A3008 RMK A01 T02350174  RH  069%=      5-min Rain = 0
KHA3 170159Z 09006KT 24/17 A3008 RMK A01 T02350174  RH  069%=      5-min Rain = 0
KHA3 170200Z 09006KT 23/17 A3008 RMK A01 T02340174  RH  069%=      5-min Rain = 0
KHA3 170201Z 09006KT 23/17 A3008 RMK A01 T02340174  RH  069%=      5-min Rain = 0
KHA3 170202Z 09006KT 23/17 A3008 RMK A01 T02340174  RH  069%=      5-min Rain = 0
KHA3 170203Z 10006KT 23/17 A3008 RMK A01 T02340174  RH  069%=      5-min Rain = 0
KHA3 170204Z 10005KT 23/17 A3008 RMK A01 T02340174  RH  069%=      5-min Rain = 0
KHA3 170205Z 10005KT 23/17 A3008 RMK A01 T02340174  RH  069%=      5-min Rain = 0
KHA3 170206Z 10005KT 23/17 A3008 RMK A01 T02340174  RH  069%=      5-min Rain = 0
KHA3 170207Z 10005KT 23/17 A3008 RMK A01 T02330174  RH  069%=      5-min Rain = 0
KHA3 170208Z 10005KT 23/17 A3008 RMK A01 T02330174  RH  070%=      5-min Rain = 0
KHA3 170209Z 10005KT 23/18 A3008 RMK A01 T02330175  RH  070%=      5-min Rain = 0
KHA3 170210Z 11005KT 23/18 A3008 RMK A01 T02330175  RH  070%=      5-min Rain = 0
KHA3 170211Z 11005KT 23/18 A3008 RMK A01 T02330175  RH  070%=      5-min Rain = 0
KHA3 170212Z 10005KT 23/17 A3008 RMK A01 T02330174  RH  070%=      5-min Rain = 0
KHA3 170213Z 10005KT 23/17 A3008 RMK A01 T02330174  RH  070%=      5-min Rain = 0
KHA3 170214Z 10005KT 23/17 A3008 RMK A01 T02320174  RH  070%=      5-min Rain = 0
KHA3 170215Z 10005KT 23/17 A3009 RMK A01 T02320174  RH  070%=      5-min Rain = 0
KHA3 170216Z 10005KT 23/18 A3009 RMK A01 T02320175  RH  070%=      5-min Rain = 0
KHA3 170217Z 10005KT 23/18 A3009 RMK A01 T02320175  RH  070%=      5-min Rain = 0
KHA3 170218Z 10005KT 23/18 A3009 RMK A01 T02320175  RH  070%=      5-min Rain = 0
KHA3 170219Z 10005KT 23/18 A3009 RMK A01 T02320175  RH  070%=      5-min Rain = 0
KHA3 170220Z 10005KT 23/18 A3009 RMK A01 T02320175  RH  070%=      5-min Rain = 0
KHA3 170221Z 10005KT 23/18 A3009 RMK A01 T02320175  RH  070%=      5-min Rain = 0
KHA3 170222Z 11005KT 23/18 A3009 RMK A01 T02320175  RH  070%=      5-min Rain = 0
KHA3 170223Z 11005KT 23/18 A3009 RMK A01 T02320175  RH  070%=      5-min Rain = 0
KHA3 170224Z 10005KT 23/18 A3009 RMK A01 T02320175  RH  070%=      5-min Rain = 0
KHA3 170225Z 11005KT 23/18 A3009 RMK A01 T02310175  RH  071%=      5-min Rain = 0
KHA3 170226Z 10005KT 23/18 A3009 RMK A01 T02320176  RH  071%=      5-min Rain = 0
KHA3 170227Z 10005KT 23/18 A3009 RMK A01 T02310175  RH  071%=      5-min Rain = 0
KHA3 170228Z 10005KT 23/18 A3009 RMK A01 T02310175  RH  071%=      5-min Rain = 0
KHA3 170229Z 10005KT 23/18 A3009 RMK A01 T02300175  RH  071%=      5-min Rain = 0
KHA3 170230Z 10005KT 23/18 A3009 RMK A01 T02300175  RH  071%=      5-min Rain = 0
KHA3 170231Z 10004KT 23/18 A3009 RMK A01 T02310175  RH  071%=      5-min Rain = 0
KHA3 170232Z 10005KT 23/18 A3009 RMK A01 T02300175  RH  071%=      5-min Rain = 0
KHA3 170233Z 10004KT 23/18 A3009 RMK A01 T02300175  RH  071%=      5-min Rain = 0
KHA3 170234Z 10004KT 23/18 A301 RMK A01 T02300175  RH  071%=      5-min Rain = 0
KHA3 170235Z 10004KT 23/17 A301 RMK A01 T02300174  RH  071%=      5-min Rain = 0
KHA3 170236Z 10004KT 23/18 A301 RMK A01 T02300175  RH  071%=      5-min Rain = 0
KHA3 170237Z 10004KT 23/18 A301 RMK A01 T02300175  RH  071%=      5-min Rain = 0
KHA3 170238Z 10004KT 23/17 A301 RMK A01 T02300174  RH  071%=      5-min Rain = 0
KHA3 170239Z 10004KT 23/17 A301 RMK A01 T02300174  RH  071%=      5-min Rain = 0
KHA3 170240Z 11004KT 23/18 A301 RMK A01 T02310175  RH  071%=      5-min Rain = 0
KHA3 170241Z 11004KT 23/17 A301 RMK A01 T02310174  RH  070%=      5-min Rain = 0
KHA3 170242Z 11004KT 23/18 A301 RMK A01 T02310175  RH  070%=      5-min Rain = 0
KHA3 170243Z 11004KT 23/18 A301 RMK A01 T02310175  RH  071%=      5-min Rain = 0
KHA3 170244Z 11004KT 23/18 A301 RMK A01 T02310175  RH  071%=      5-min Rain = 0
KHA3 170245Z 11004KT 23/18 A301 RMK A01 T02300175  RH  071%=      5-min Rain = 0
KHA3 170246Z 11004KT 23/18 A301 RMK A01 T02300175  RH  071%=      5-min Rain = 0
KHA3 170247Z 11004KT 23/18 A301 RMK A01 T02300175  RH  071%=      5-min Rain = 0
KHA3 170248Z 11005KT 23/18 A301 RMK A01 T02300175  RH  071%=      5-min Rain = 0
KHA3 170249Z 11004KT 23/18 A301 RMK A01 T02290175  RH  071%=      5-min Rain = 0
KHA3 170250Z 12004KT 23/18 A301 RMK A01 T02290175  RH  071%=      5-min Rain = 0
KHA3 170251Z 11004KT 23/18 A301 RMK A01 T02290175  RH  071%=      5-min Rain = 0
KHA3 170252Z 11005KT 23/18 A3011 RMK A01 T02300175  RH  071%=      5-min Rain = 0
KHA3 170253Z 11005KT 23/18 A3011 RMK A01 T02290175  RH  072%=      5-min Rain = 0
KHA3 170254Z 11005KT 23/18 A3011 RMK A01 T02280175  RH  072%=      5-min Rain = 0
KHA3 170255Z 11005KT 23/18 A3011 RMK A01 T02280175  RH  072%=      5-min Rain = 0
KHA3 170256Z 11005KT 23/18 A3011 RMK A01 T02270175  RH  072%=      5-min Rain = 0
KHA3 170257Z 11005KT 23/18 A3011 RMK A01 T02270175  RH  072%=      5-min Rain = 0
KHA3 170258Z 11005KT 23/18 A3011 RMK A01 T02260175  RH  073%=      5-min Rain = 0
KHA3 170259Z 11005KT 23/18 A3011 RMK A01 T02250175  RH  073%=      5-min Rain = 0
KHA3 170300Z 11005KT 23/18 A3011 RMK A01 T02250175  RH  073%=      5-min Rain = 0
KHA3 170301Z 11005KT 22/18 A3011 RMK A01 T02240175  RH  073%=      5-min Rain = 0
KHA3 170302Z 11005KT 22/18 A3011 RMK A01 T02240175  RH  073%=      5-min Rain = 0
KHA3 170303Z 11005KT 22/17 A3011 RMK A01 T02240174  RH  073%=      5-min Rain = 0
KHA3 170304Z 11005KT 22/17 A3011 RMK A01 T02240174  RH  073%=      5-min Rain = 0
KHA3 170305Z 11005KT 22/17 A3011 RMK A01 T02240174  RH  073%=      5-min Rain = 0
KHA3 170306Z 11005KT 22/17 A3011 RMK A01 T02240174  RH  073%=      5-min Rain = 0
KHA3 170307Z 11005KT 22/18 A3011 RMK A01 T02240175  RH  074%=      5-min Rain = 0
KHA3 170308Z 11005KT 22/17 A3011 RMK A01 T02230174  RH  074%=      5-min Rain = 0
KHA3 170309Z 11005KT 22/17 A3011 RMK A01 T02230174  RH  074%=      5-min Rain = 0
KHA3 170310Z 11005KT 22/17 A3011 RMK A01 T02240174  RH  074%=      5-min Rain = 0
KHA3 170311Z 12005KT 22/17 A3011 RMK A01 T02240174  RH  073%=      5-min Rain = 0
KHA3 170312Z 12005KT 23/18 A3011 RMK A01 T02250175  RH  073%=      5-min Rain = 0
KHA3 170313Z 12005KT 23/18 A3011 RMK A01 T02260175  RH  073%=      5-min Rain = 0
KHA3 170314Z 12005KT 23/18 A3011 RMK A01 T02260175  RH  073%=      5-min Rain = 0
KHA3 170315Z 11005KT 23/18 A3011 RMK A01 T02270175  RH  072%=      5-min Rain = 0
KHA3 170316Z 11005KT 23/18 A3011 RMK A01 T02270175  RH  072%=      5-min Rain = 0
KHA3 170317Z 11005KT 23/18 A3011 RMK A01 T02280175  RH  072%=      5-min Rain = 0
KHA3 170318Z 11005KT 23/18 A3011 RMK A01 T02280175  RH  072%=      5-min Rain = 0
KHA3 170319Z 11005KT 23/18 A3011 RMK A01 T02270175  RH  072%=      5-min Rain = 0
KHA3 170320Z 11005KT 23/18 A3011 RMK A01 T02280175  RH  072%=      5-min Rain = 0
KHA3 170321Z 11005KT 23/18 A3011 RMK A01 T02270175  RH  072%=      5-min Rain = 0
KHA3 170322Z 11005KT 23/18 A3011 RMK A01 T02270175  RH  072%=      5-min Rain = 0
KHA3 170323Z 11005KT 23/18 A3011 RMK A01 T02270175  RH  073%=      5-min Rain = 0
KHA3 170324Z 11005KT 23/17 A3011 RMK A01 T02260174  RH  073%=      5-min Rain = 0
KHA3 170325Z 10005KT 23/18 A3011 RMK A01 T02260175  RH  073%=      5-min Rain = 0
KHA3 170326Z 11005KT 23/18 A3011 RMK A01 T02260175  RH  073%=      5-min Rain = 0
KHA3 170327Z 11005KT 23/17 A3011 RMK A01 T02250174  RH  073%=      5-min Rain = 0
KHA3 170328Z 11005KT 22/17 A3011 RMK A01 T02240174  RH  073%=      5-min Rain = 0
KHA3 170329Z 11005KT 22/17 A3011 RMK A01 T02230174  RH  074%=      5-min Rain = 0
KHA3 170330Z 11005KT 22/17 A3011 RMK A01 T02230174  RH  074%=      5-min Rain = 0
KHA3 170331Z 10005KT 22/17 A3011 RMK A01 T02230174  RH  074%=      5-min Rain = 0
KHA3 170332Z 10005KT 22/17 A3011 RMK A01 T02220174  RH  074%=      5-min Rain = 0
KHA3 170333Z 11005KT 22/17 A3011 RMK A01 T02210174  RH  074%=      5-min Rain = 0
KHA3 170334Z 10005KT 22/17 A3011 RMK A01 T02210174  RH  074%=      5-min Rain = 0
KHA3 170335Z 10005KT 22/17 A3011 RMK A01 T02210174  RH  074%=      5-min Rain = 0
KHA3 170336Z 10005KT 22/17 A3011 RMK A01 T02210174  RH  074%=      5-min Rain = 0
KHA3 170337Z 11005KT 22/17 A3011 RMK A01 T02210174  RH  074%=      5-min Rain = 0
KHA3 170338Z 11005KT 22/17 A3011 RMK A01 T02220174  RH  074%=      5-min Rain = 0
KHA3 170339Z 11005KT 22/17 A3011 RMK A01 T02220174  RH  074%=      5-min Rain = 0
KHA3 170340Z 11005KT 22/17 A3011 RMK A01 T02230174  RH  074%=      5-min Rain = 0
KHA3 170341Z 11005KT 22/18 A3011 RMK A01 T02240175  RH  074%=      5-min Rain = 0
KHA3 170342Z 12005KT 23/18 A3011 RMK A01 T02250175  RH  073%=      5-min Rain = 0
KHA3 170343Z 11005KT 23/18 A3011 RMK A01 T02250175  RH  073%=      5-min Rain = 0
KHA3 170344Z 11004KT 23/18 A3011 RMK A01 T02260175  RH  073%=      5-min Rain = 0
KHA3 170345Z 12005KT 23/18 A3011 RMK A01 T02270175  RH  072%=      5-min Rain = 0
KHA3 170346Z 12004KT 23/18 A3011 RMK A01 T02280175  RH  072%=      5-min Rain = 0
KHA3 170347Z 11005KT 23/18 A3011 RMK A01 T02290175  RH  072%=      5-min Rain = 0
KHA3 170348Z 12005KT 23/18 A3011 RMK A01 T02290175  RH  072%=      5-min Rain = 0
KHA3 170349Z 12004KT 23/18 A3011 RMK A01 T02300175  RH  071%=      5-min Rain = 0
KHA3 170350Z 11005KT 23/18 A3011 RMK A01 T02290175  RH  072%=      5-min Rain = 0
KHA3 170351Z 12005KT 23/18 A3011 RMK A01 T02290175  RH  072%=      5-min Rain = 0
KHA3 170352Z 12004KT 23/18 A3011 RMK A01 T02290176  RH  072%=      5-min Rain = 0
KHA3 170353Z 12004KT 23/18 A3011 RMK A01 T02290176  RH  072%=      5-min Rain = 0
KHA3 170354Z 12004KT 23/18 A3011 RMK A01 T02280175  RH  072%=      5-min Rain = 0
KHA3 170355Z 12004KT 23/18 A3011 RMK A01 T02280176  RH  072%=      5-min Rain = 0
KHA3 170356Z 12004KT 23/18 A3011 RMK A01 T02270175  RH  073%=      5-min Rain = 0
KHA3 170357Z 12004KT 23/18 A3011 RMK A01 T02260175  RH  073%=      5-min Rain = 0
KHA3 170358Z 12004KT 22/17 A3011 RMK A01 T02240174  RH  073%=      5-min Rain = 0
KHA3 170359Z 12004KT 22/18 A3011 RMK A01 T02240175  RH  074%=      5-min Rain = 0
KHA3 170400Z 13004KT 22/17 A3011 RMK A01 T02220174  RH  074%=      5-min Rain = 0
KHA3 170401Z 12004KT 22/18 A3011 RMK A01 T02210175  RH  075%=      5-min Rain = 0
KHA3 170402Z 12004KT 22/17 A3011 RMK A01 T02200174  RH  075%=      5-min Rain = 0
KHA3 170403Z 12004KT 22/17 A3011 RMK A01 T02200174  RH  075%=      5-min Rain = 0
KHA3 170404Z 12004KT 22/17 A3011 RMK A01 T02190174  RH  076%=      5-min Rain = 0
KHA3 170405Z 12004KT 22/17 A3011 RMK A01 T02180174  RH  076%=      5-min Rain = 0
KHA3 170406Z 12004KT 22/17 A3011 RMK A01 T02180174  RH  076%=      5-min Rain = 0
KHA3 170407Z 12004KT 22/17 A3011 RMK A01 T02170174  RH  076%=      5-min Rain = 0
KHA3 170408Z 12004KT 22/17 A3011 RMK A01 T02170174  RH  077%=      5-min Rain = 0
KHA3 170409Z 12004KT 22/17 A3011 RMK A01 T02170174  RH  077%=      5-min Rain = 0
KHA3 170410Z 12003KT 22/17 A3011 RMK A01 T02170174  RH  077%=      5-min Rain = 0
KHA3 170411Z 12003KT 22/17 A3011 RMK A01 T02160174  RH  077%=      5-min Rain = 0
KHA3 170412Z 12003KT 22/17 A3011 RMK A01 T02170174  RH  076%=      5-min Rain = 0
KHA3 170413Z 11003KT 22/17 A3011 RMK A01 T02170174  RH  076%=      5-min Rain = 0
KHA3 170414Z 11003KT 22/17 A3011 RMK A01 T02180174  RH  076%=      5-min Rain = 0
KHA3 170415Z 11003KT 22/17 A3011 RMK A01 T02180174  RH  076%=      5-min Rain = 0
KHA3 170416Z 11003KT 22/17 A3011 RMK A01 T02190174  RH  076%=      5-min Rain = 0
KHA3 170417Z 11003KT 22/17 A3011 RMK A01 T02190174  RH  076%=      5-min Rain = 0
KHA3 170418Z 11002KT 22/17 A3011 RMK A01 T02200174  RH  075%=      5-min Rain = 0
KHA3 170419Z 11002KT 22/17 A3011 RMK A01 T02200174  RH  075%=      5-min Rain = 0
KHA3 170420Z 11002KT 22/17 A3011 RMK A01 T02200174  RH  075%=      5-min Rain = 0
KHA3 170421Z 11002KT 22/17 A3011 RMK A01 T02200174  RH  075%=      5-min Rain = 0
KHA3 170422Z 11002KT 22/17 A3011 RMK A01 T02210174  RH  075%=      5-min Rain = 0
KHA3 170423Z 11002KT 22/17 A3011 RMK A01 T02200174  RH  075%=      5-min Rain = 0
KHA3 170424Z 11002KT 22/17 A3011 RMK A01 T02200174  RH  075%=      5-min Rain = 0
KHA3 170425Z 11002KT 22/17 A3011 RMK A01 T02200174  RH  075%=      5-min Rain = 0
KHA3 170426Z 11002KT 22/17 A3011 RMK A01 T02200174  RH  075%=      5-min Rain = 0
KHA3 170427Z 10002KT 22/17 A3011 RMK A01 T02200174  RH  075%=      5-min Rain = 0
KHA3 170428Z 10002KT 22/17 A3011 RMK A01 T02190174  RH  076%=      5-min Rain = 0
KHA3 170429Z 10002KT 22/17 A3011 RMK A01 T02180174  RH  076%=      5-min Rain = 0
KHA3 170430Z 09002KT 22/17 A3011 RMK A01 T02170174  RH  077%=      5-min Rain = 0
KHA3 170431Z 09002KT 22/17 A3011 RMK A01 T02150174  RH  077%=      5-min Rain = 0
KHA3 170432Z 09002KT 21/17 A3011 RMK A01 T02140174  RH  078%=      5-min Rain = 0
KHA3 170433Z 09001KT 21/17 A3011 RMK A01 T02130174  RH  078%=      5-min Rain = 0
KHA3 170434Z 09001KT 21/17 A3012 RMK A01 T02130174  RH  078%=      5-min Rain = 0
KHA3 170435Z 09001KT 21/17 A3012 RMK A01 T02130174  RH  078%=      5-min Rain = 0
KHA3 170436Z 09001KT 21/17 A3012 RMK A01 T02130174  RH  078%=      5-min Rain = 0
KHA3 170437Z 09000KT 21/17 A3012 RMK A01 T02130174  RH  078%=      5-min Rain = 0
KHA3 170438Z 00000KT 21/17 A3012 RMK A01 T02130174  RH  078%=      5-min Rain = 0
KHA3 170439Z 00000KT 21/18 A3012 RMK A01 T02140175  RH  078%=      5-min Rain = 0
KHA3 170440Z 00000KT 21/18 A3012 RMK A01 T02130175  RH  079%=      5-min Rain = 0
KHA3 170441Z 32000KT 21/18 A3012 RMK A01 T02130175  RH  079%=      5-min Rain = 0
KHA3 170442Z 32001KT 21/18 A3012 RMK A01 T02130176  RH  080%=      5-min Rain = 0
KHA3 170443Z 31001KT 21/18 A3012 RMK A01 T02120176  RH  080%=      5-min Rain = 0
KHA3 170444Z 31001KT 21/18 A3012 RMK A01 T02120176  RH  080%=      5-min Rain = 0
KHA3 170445Z 31001KT 21/18 A3012 RMK A01 T02110175  RH  080%=      5-min Rain = 0
KHA3 170446Z 28001KT 21/18 A3012 RMK A01 T02110175  RH  080%=      5-min Rain = 0
KHA3 170447Z 27001KT 21/18 A3012 RMK A01 T02110175  RH  080%=      5-min Rain = 0
KHA3 170448Z 26001KT 21/18 A3012 RMK A01 T02110175  RH  080%=      5-min Rain = 0
KHA3 170449Z 27002KT 21/18 A3012 RMK A01 T02110175  RH  080%=      5-min Rain = 0
KHA3 170450Z 27002KT 21/18 A3012 RMK A01 T02110175  RH  080%=      5-min Rain = 0
KHA3 170451Z 28002KT 21/18 A3012 RMK A01 T02110176  RH  081%=      5-min Rain = 0
KHA3 170452Z 29002KT 21/18 A3012 RMK A01 T02100175  RH  080%=      5-min Rain = 0
KHA3 170453Z 30002KT 21/17 A3012 RMK A01 T02100174  RH  080%=      5-min Rain = 0
KHA3 170454Z 30002KT 21/17 A3012 RMK A01 T02100174  RH  080%=      5-min Rain = 0
KHA3 170455Z 30002KT 21/17 A3012 RMK A01 T02100174  RH  079%=      5-min Rain = 0
KHA3 170456Z 30002KT 21/17 A3012 RMK A01 T02100174  RH  079%=      5-min Rain = 0
KHA3 170457Z 30002KT 21/17 A3012 RMK A01 T02100174  RH  079%=      5-min Rain = 0
KHA3 170458Z 30002KT 21/17 A3012 RMK A01 T02100174  RH  080%=      5-min Rain = 0
KHA3 170459Z 30002KT 21/17 A3012 RMK A01 T02100173  RH  079%=      5-min Rain = 0

Page generated in 0.0705 seconds.